Wetterdaten: Donnerstag, 13.02.2014
Datum Zeit Temp. Aussen +5cm Feuchte Auss Luftdruck Regen Sonnenschein Regendauer UV Solar Windben
13.02.2014 00:00 6,6 C 3,9 C 81 % 996,9 hPa 0,0 l/m 0 min 0 min 0,0 UV-I 0 W/m 30,9 km/h (5 Bft)
13.02.2014 00:02 6,7 C 3,9 C 81 % 996,7 hPa 0,0 l/m 0 min 0 min 0,0 UV-I 0 W/m 30,9 km/h (5 Bft)
13.02.2014 00:04 6,6 C 3,9 C 81 % 996,6 hPa 0,0 l/m 0 min 0 min 0,0 UV-I 0 W/m 20,6 km/h (4 Bft)
13.02.2014 00:06 6,7 C 3,9 C 81 % 996,7 hPa 0,0 l/m 0 min 0 min 0,0 UV-I 0 W/m 33,5 km/h (5 Bft)
13.02.2014 00:08 6,7 C 3,9 C 81 % 996,6 hPa 0,0 l/m 0 min 0 min 0,0 UV-I 0 W/m 28,3 km/h (4 Bft)
13.02.2014 00:10 6,7 C 3,9 C 81 % 996,7 hPa 0,0 l/m 0 min 0 min 0,0 UV-I 0 W/m 33,5 km/h (5 Bft)
13.02.2014 00:12 6,7 C 3,9 C 81 % 996,4 hPa 0,0 l/m 0 min 0 min 0,0 UV-I 0 W/m 20,6 km/h (4 Bft)
13.02.2014 00:14 6,6 C 3,9 C 81 % 996,5 hPa 0,0 l/m 0 min 0 min 0,0 UV-I 0 W/m 20,6 km/h (4 Bft)
13.02.2014 00:16 6,6 C 3,9 C 81 % 996,3 hPa 0,0 l/m 0 min 0 min 0,0 UV-I 0 W/m 30,9 km/h (5 Bft)
13.02.2014 00:18 6,6 C 3,9 C 81 % 996,3 hPa 0,0 l/m 0 min 0 min 0,0 UV-I 0 W/m 25,7 km/h (4 Bft)
13.02.2014 00:20 6,6 C 3,9 C 81 % 996,2 hPa 0,0 l/m 0 min 0 min 0,0 UV-I 0 W/m 23,2 km/h (4 Bft)
13.02.2014 00:22 6,6 C 3,9 C 81 % 996,1 hPa 0,0 l/m 0 min 0 min 0,0 UV-I 0 W/m 28,3 km/h (4 Bft)
13.02.2014 00:24 6,5 C 3,9 C 81 % 996,2 hPa 0,0 l/m 0 min 0 min 0,0 UV-I 0 W/m 25,7 km/h (4 Bft)
13.02.2014 00:26 6,4 C 3,9 C 81 % 996,3 hPa 0,0 l/m 0 min 0 min 0,0 UV-I 0 W/m 23,2 km/h (4 Bft)
13.02.2014 00:28 6,4 C 3,9 C 81 % 996,4 hPa 0,0 l/m 0 min 0 min 0,0 UV-I 0 W/m 25,7 km/h (4 Bft)
13.02.2014 00:30 6,4 C 3,9 C 82 % 996,2 hPa 0,0 l/m 0 min 0 min 0,0 UV-I 0 W/m 25,7 km/h (4 Bft)
13.02.2014 00:32 6,4 C 3,9 C 82 % 996,3 hPa 0,0 l/m 0 min 0 min 0,0 UV-I 0 W/m 20,6 km/h (4 Bft)
13.02.2014 00:34 6,4 C 3,9 C 82 % 996,3 hPa 0,0 l/m 0 min 0 min 0,0 UV-I 0 W/m 38,6 km/h (5 Bft)
13.02.2014 00:36 6,4 C 3,9 C 82 % 996,4 hPa 0,0 l/m 0 min 0 min 0,0 UV-I 0 W/m 28,3 km/h (4 Bft)
13.02.2014 00:38 6,4 C 3,9 C 82 % 996,5 hPa 0,0 l/m 0 min 0 min 0,0 UV-I 0 W/m 36,0 km/h (5 Bft)
13.02.2014 00:40 6,4 C 3,9 C 82 % 996,3 hPa 0,0 l/m 0 min 0 min 0,0 UV-I 0 W/m 28,3 km/h (4 Bft)
13.02.2014 00:42 6,4 C 3,9 C 82 % 996,7 hPa 0,0 l/m 0 min 0 min 0,0 UV-I 0 W/m 23,2 km/h (4 Bft)
13.02.2014 00:44 6,4 C 3,9 C 82 % 996,5 hPa 0,0 l/m 0 min 0 min 0,0 UV-I 0 W/m 30,9 km/h (5 Bft)
13.02.2014 00:46 6,4 C 3,9 C 82 % 996,6 hPa 0,0 l/m 0 min 0 min 0,0 UV-I 0 W/m 36,0 km/h (5 Bft)
13.02.2014 00:48 6,4 C 3,9 C 82 % 996,6 hPa 0,0 l/m 0 min 0 min 0,0 UV-I 0 W/m 15,4 km/h (3 Bft)
13.02.2014 00:50 6,3 C 3,9 C 82 % 996,7 hPa 0,0 l/m 0 min 0 min 0,0 UV-I 0 W/m 20,6 km/h (4 Bft)
13.02.2014 00:52 6,3 C 3,9 C 82 % 996,6 hPa 0,0 l/m 0 min 0 min 0,0 UV-I 0 W/m 25,7 km/h (4 Bft)
13.02.2014 00:54 6,3 C 3,9 C 82 % 996,7 hPa 0,0 l/m 0 min 0 min 0,0 UV-I 0 W/m 20,6 km/h (4 Bft)
13.02.2014 00:56 6,3 C 3,9 C 82 % 996,6 hPa 0,0 l/m 0 min 0 min 0,0 UV-I 0 W/m 18,0 km/h (3 Bft)
13.02.2014 00:58 6,3 C 3,9 C 82 % 996,7 hPa 0,0 l/m 0 min 0 min 0,0 UV-I 0 W/m 23,2 km/h (4 Bft)
13.02.2014 01:00 6,3 C 3,9 C 83 % 996,6 hPa 0,0 l/m 0 min 0 min 0,0 UV-I 0 W/m 25,7 km/h (4 Bft)
13.02.2014 01:02 6,3 C 3,9 C 82 % 996,6 hPa 0,0 l/m 0 min 0 min 0,0 UV-I 0 W/m 30,9 km/h (5 Bft)
13.02.2014 01:04 6,3 C 3,9 C 82 % 996,6 hPa 0,0 l/m 0 min 0 min 0,0 UV-I 0 W/m 12,9 km/h (3 Bft)
13.02.2014 01:06 6,3 C 3,9 C 82 % 996,7 hPa 0,0 l/m 0 min 0 min 0,0 UV-I 0 W/m 18,0 km/h (3 Bft)
13.02.2014 01:08 6,3 C 3,9 C 83 % 996,6 hPa 0,0 l/m 0 min 0 min 0,0 UV-I 0 W/m 20,6 km/h (4 Bft)
13.02.2014 01:10 6,3 C 3,9 C 83 % 996,6 hPa 0,0 l/m 0 min 0 min 0,0 UV-I 0 W/m 12,9 km/h (3 Bft)
13.02.2014 01:12 6,2 C 3,9 C 83 % 996,6 hPa 0,0 l/m 0 min 0 min 0,0 UV-I 0 W/m 18,0 km/h (3 Bft)
13.02.2014 01:14 6,3 C 3,9 C 83 % 996,7 hPa 0,0 l/m 0 min 0 min 0,0 UV-I 0 W/m 28,3 km/h (4 Bft)
13.02.2014 01:16 6,3 C 3,9 C 83 % 996,6 hPa 0,0 l/m 0 min 0 min 0,0 UV-I 0 W/m 25,7 km/h (4 Bft)
13.02.2014 01:18 6,2 C 3,9 C 83 % 996,7 hPa 0,0 l/m 0 min 0 min 0,0 UV-I 0 W/m 25,7 km/h (4 Bft)
13.02.2014 01:20 6,2 C 3,9 C 83 % 996,7 hPa 0,0 l/m 0 min 0 min 0,0 UV-I 0 W/m 23,2 km/h (4 Bft)
13.02.2014 01:22 6,3 C 3,9 C 83 % 996,6 hPa 0,0 l/m 0 min 0 min 0,0 UV-I 0 W/m 38,6 km/h (5 Bft)
13.02.2014 01:24 6,3 C 3,9 C 83 % 996,6 hPa 0,0 l/m 0 min 0 min 0,0 UV-I 0 W/m 10,3 km/h (2 Bft)
13.02.2014 01:26 6,3 C 3,9 C 83 % 996,6 hPa 0,0 l/m 0 min 0 min 0,0 UV-I 0 W/m 30,9 km/h (5 Bft)
13.02.2014 01:28 6,3 C 3,9 C 83 % 996,7 hPa 0,0 l/m 0 min 0 min 0,0 UV-I 0 W/m 18,0 km/h (3 Bft)
13.02.2014 01:30 6,3 C 3,9 C 83 % 996,7 hPa 0,0 l/m 0 min 0 min 0,0 UV-I 0 W/m 12,9 km/h (3 Bft)
13.02.2014 01:32 6,4 C 3,9 C 83 % 996,8 hPa 0,0 l/m 0 min 0 min 0,0 UV-I 0 W/m 12,9 km/h (3 Bft)
13.02.2014 01:34 6,4 C 3,9 C 83 % 996,7 hPa 0,0 l/m 0 min 0 min 0,0 UV-I 0 W/m 20,6 km/h (4 Bft)
13.02.2014 01:36 6,4 C 3,9 C 83 % 996,8 hPa 0,0 l/m 0 min 0 min 0,0 UV-I 0 W/m 12,9 km/h (3 Bft)
13.02.2014 01:38 6,4 C 3,9 C 83 % 996,7 hPa 0,0 l/m 0 min 0 min 0,0 UV-I 0 W/m 15,4 km/h (3 Bft)
13.02.2014 01:40 6,4 C 3,9 C 83 % 996,7 hPa 0,0 l/m 0 min 0 min 0,0 UV-I 0 W/m 18,0 km/h (3 Bft)
13.02.2014 01:42 6,4 C 3,9 C 83 % 996,8 hPa 0,0 l/m 0 min 0 min 0,0 UV-I 0 W/m 18,0 km/h (3 Bft)
13.02.2014 01:44 6,4 C 3,9 C 83 % 996,8 hPa 0,0 l/m 0 min 2 min 0,0 UV-I 0 W/m 7,7 km/h (2 Bft)
13.02.2014 01:46 6,4 C 3,9 C 83 % 996,9 hPa 0,0 l/m 0 min 2 min 0,0 UV-I 0 W/m 18,0 km/h (3 Bft)
13.02.2014 01:48 6,4 C 3,9 C 83 % 996,7 hPa 0,0 l/m 0 min 2 min 0,0 UV-I 0 W/m 15,4 km/h (3 Bft)
13.02.2014 01:50 6,4 C 3,9 C 84 % 996,9 hPa 0,0 l/m 0 min 2 min 0,0 UV-I 0 W/m 12,9 km/h (3 Bft)
13.02.2014 01:52 6,4 C 3,9 C 84 % 996,9 hPa 0,0 l/m 0 min 2 min 0,0 UV-I 0 W/m 15,4 km/h (3 Bft)
13.02.2014 01:54 6,4 C 3,9 C 84 % 996,7 hPa 0,0 l/m 0 min 0 min 0,0 UV-I 0 W/m 5,1 km/h (1 Bft)
13.02.2014 01:56 6,4 C 3,9 C 85 % 996,7 hPa 0,0 l/m 0 min 0 min 0,0 UV-I 0 W/m 12,9 km/h (3 Bft)
13.02.2014 01:58 6,3 C 3,9 C 85 % 996,6 hPa 0,0 l/m 0 min 0 min 0,0 UV-I 0 W/m 10,3 km/h (2 Bft)
13.02.2014 02:00 6,3 C 3,9 C 85 % 996,7 hPa 0,0 l/m 0 min 0 min 0,0 UV-I 0 W/m 5,1 km/h (1 Bft)
13.02.2014 02:02 6,3 C 3,9 C 85 % 996,6 hPa 0,0 l/m 0 min 0 min 0,0 UV-I 0 W/m 5,1 km/h (1 Bft)
13.02.2014 02:04 6,2 C 3,9 C 86 % 996,6 hPa 0,0 l/m 0 min 0 min 0,0 UV-I 0 W/m 0,0 km/h (0 Bft)
13.02.2014 02:06 6,2 C 3,9 C 86 % 996,6 hPa 0,0 l/m 0 min 0 min 0,0 UV-I 0 W/m 0,0 km/h (0 Bft)
13.02.2014 02:08 6,2 C 3,9 C 86 % 996,6 hPa 0,0 l/m 0 min 0 min 0,0 UV-I 0 W/m 5,1 km/h (1 Bft)
13.02.2014 02:10 6,2 C 3,9 C 86 % 996,6 hPa 0,0 l/m 0 min 0 min 0,0 UV-I 0 W/m 10,3 km/h (2 Bft)
13.02.2014 02:12 6,2 C 3,9 C 86 % 996,6 hPa 0,0 l/m 0 min 0 min 0,0 UV-I 0 W/m 18,0 km/h (3 Bft)
13.02.2014 02:14 6,2 C 3,9 C 86 % 996,7 hPa 0,0 l/m 0 min 0 min 0,0 UV-I 0 W/m 7,7 km/h (2 Bft)
13.02.2014 02:16 6,3 C 3,9 C 86 % 996,7 hPa 0,0 l/m 0 min 0 min 0,0 UV-I 0 W/m 5,1 km/h (1 Bft)
13.02.2014 02:18 6,3 C 4,4 C 86 % 996,7 hPa 0,0 l/m 0 min 0 min 0,0 UV-I 0 W/m 12,9 km/h (3 Bft)
13.02.2014 02:20 6,3 C 4,4 C 86 % 996,7 hPa 0,0 l/m 0 min 0 min 0,0 UV-I 0 W/m 10,3 km/h (2 Bft)
13.02.2014 02:22 6,3 C 4,4 C 86 % 996,7 hPa 0,0 l/m 0 min 0 min 0,0 UV-I 0 W/m 12,9 km/h (3 Bft)
13.02.2014 02:24 6,4 C 4,4 C 86 % 996,8 hPa 0,0 l/m 0 min 0 min 0,0 UV-I 0 W/m 20,6 km/h (4 Bft)
13.02.2014 02:26 6,4 C 4,4 C 85 % 996,7 hPa 0,0 l/m 0 min 0 min 0,0 UV-I 0 W/m 12,9 km/h (3 Bft)
13.02.2014 02:28 6,4 C 4,4 C 85 % 996,8 hPa 0,0 l/m 0 min 0 min 0,0 UV-I 0 W/m 12,9 km/h (3 Bft)
13.02.2014 02:30 6,4 C 4,4 C 85 % 996,7 hPa 0,0 l/m 0 min 0 min 0,0 UV-I 0 W/m 18,0 km/h (3 Bft)
13.02.2014 02:32 6,5 C 4,4 C 85 % 996,6 hPa 0,0 l/m 0 min 0 min 0,0 UV-I 0 W/m 15,4 km/h (3 Bft)
13.02.2014 02:34 6,6 C 4,4 C 84 % 996,7 hPa 0,0 l/m 0 min 0 min 0,0 UV-I 0 W/m 25,7 km/h (4 Bft)
13.02.2014 02:36 6,6 C 5,0 C 84 % 996,7 hPa 0,0 l/m 0 min 0 min 0,0 UV-I 0 W/m 20,6 km/h (4 Bft)
13.02.2014 02:38 6,6 C 5,0 C 84 % 996,7 hPa 0,0 l/m 0 min 0 min 0,0 UV-I 0 W/m 15,4 km/h (3 Bft)
13.02.2014 02:40 6,7 C 5,0 C 84 % 996,9 hPa 0,0 l/m 0 min 0 min 0,0 UV-I 0 W/m 25,7 km/h (4 Bft)
13.02.2014 02:42 6,7 C 5,0 C 83 % 996,7 hPa 0,0 l/m 0 min 0 min 0,0 UV-I 0 W/m 15,4 km/h (3 Bft)
13.02.2014 02:44 6,7 C 5,0 C 83 % 996,7 hPa 0,0 l/m 0 min 0 min 0,0 UV-I 0 W/m 23,2 km/h (4 Bft)
13.02.2014 02:46 6,7 C 4,4 C 83 % 996,8 hPa 0,0 l/m 0 min 0 min 0,0 UV-I 0 W/m 23,2 km/h (4 Bft)
13.02.2014 02:48 6,7 C 4,4 C 83 % 996,8 hPa 0,0 l/m 0 min 0 min 0,0 UV-I 0 W/m 12,9 km/h (3 Bft)
13.02.2014 02:50 6,6 C 4,4 C 83 % 996,8 hPa 0,0 l/m 0 min 0 min 0,0 UV-I 0 W/m 18,0 km/h (3 Bft)
13.02.2014 02:52 6,6 C 4,4 C 83 % 996,9 hPa 0,0 l/m 0 min 0 min 0,0 UV-I 0 W/m 23,2 km/h (4 Bft)
13.02.2014 02:54 6,7 C 5,0 C 83 % 997,0 hPa 0,0 l/m 0 min 0 min 0,0 UV-I 0 W/m 20,6 km/h (4 Bft)
13.02.2014 02:56 6,7 C 4,4 C 83 % 996,8 hPa 0,0 l/m 0 min 0 min 0,0 UV-I 0 W/m 28,3 km/h (4 Bft)
13.02.2014 02:58 6,6 C 4,4 C 82 % 996,8 hPa 0,0 l/m 0 min 0 min 0,0 UV-I 0 W/m 18,0 km/h (3 Bft)
13.02.2014 03:00 6,6 C 4,4 C 82 % 996,8 hPa 0,0 l/m 0 min 0 min 0,0 UV-I 0 W/m 12,9 km/h (3 Bft)
13.02.2014 03:02 6,6 C 4,4 C 82 % 996,8 hPa 0,0 l/m 0 min 0 min 0,0 UV-I 0 W/m 15,4 km/h (3 Bft)
13.02.2014 03:04 6,5 C 4,4 C 82 % 996,8 hPa 0,0 l/m 0 min 0 min 0,0 UV-I 0 W/m 18,0 km/h (3 Bft)
13.02.2014 03:06 6,5 C 4,4 C 82 % 996,9 hPa 0,0 l/m 0 min 0 min 0,0 UV-I 0 W/m 15,4 km/h (3 Bft)
13.02.2014 03:08 6,5 C 4,4 C 82 % 996,8 hPa 0,0 l/m 0 min 0 min 0,0 UV-I 0 W/m 10,3 km/h (2 Bft)
13.02.2014 03:10 6,4 C 4,4 C 82 % 996,8 hPa 0,0 l/m 0 min 0 min 0,0 UV-I 0 W/m 15,4 km/h (3 Bft)
13.02.2014 03:12 6,4 C 4,4 C 82 % 996,8 hPa 0,0 l/m 0 min 0 min 0,0 UV-I 0 W/m 12,9 km/h (3 Bft)
13.02.2014 03:14 6,4 C 4,4 C 82 % 996,8 hPa 0,0 l/m 0 min 0 min 0,0 UV-I 0 W/m 25,7 km/h (4 Bft)
13.02.2014 03:16 6,4 C 4,4 C 82 % 996,8 hPa 0,0 l/m 0 min 0 min 0,0 UV-I 0 W/m 12,9 km/h (3 Bft)
13.02.2014 03:18 6,4 C 4,4 C 82 % 996,7 hPa 0,0 l/m 0 min 0 min 0,0 UV-I 0 W/m 33,5 km/h (5 Bft)
13.02.2014 03:20 6,4 C 4,4 C 82 % 996,7 hPa 0,0 l/m 0 min 0 min 0,0 UV-I 0 W/m 10,3 km/h (2 Bft)
13.02.2014 03:22 6,4 C 4,4 C 82 % 996,8 hPa 0,0 l/m 0 min 0 min 0,0 UV-I 0 W/m 20,6 km/h (4 Bft)
13.02.2014 03:24 6,4 C 4,4 C 82 % 996,9 hPa 0,0 l/m 0 min 0 min 0,0 UV-I 0 W/m 18,0 km/h (3 Bft)
13.02.2014 03:26 6,4 C 4,4 C 82 % 996,9 hPa 0,0 l/m 0 min 0 min 0,0 UV-I 0 W/m 18,0 km/h (3 Bft)
13.02.2014 03:28 6,4 C 4,4 C 82 % 996,8 hPa 0,0 l/m 0 min 0 min 0,0 UV-I 0 W/m 12,9 km/h (3 Bft)
13.02.2014 03:30 6,3 C 4,4 C 82 % 996,9 hPa 0,0 l/m 0 min 0 min 0,0 UV-I 0 W/m 28,3 km/h (4 Bft)
13.02.2014 03:32 6,3 C 4,4 C 82 % 996,8 hPa 0,0 l/m 0 min 0 min 0,0 UV-I 0 W/m 18,0 km/h (3 Bft)
13.02.2014 03:34 6,3 C 4,4 C 82 % 996,8 hPa 0,0 l/m 0 min 0 min 0,0 UV-I 0 W/m 7,7 km/h (2 Bft)
13.02.2014 03:36 6,3 C 4,4 C 82 % 996,8 hPa 0,0 l/m 0 min 0 min 0,0 UV-I 0 W/m 18,0 km/h (3 Bft)
13.02.2014 03:38 6,3 C 4,4 C 82 % 996,8 hPa 0,0 l/m 0 min 0 min 0,0 UV-I 0 W/m 10,3 km/h (2 Bft)
13.02.2014 03:40 6,2 C 4,4 C 82 % 996,9 hPa 0,0 l/m 0 min 0 min 0,0 UV-I 0 W/m 23,2 km/h (4 Bft)
13.02.2014 03:42 6,2 C 4,4 C 82 % 996,9 hPa 0,0 l/m 0 min 0 min 0,0 UV-I 0 W/m 18,0 km/h (3 Bft)
13.02.2014 03:44 6,2 C 4,4 C 82 % 996,9 hPa 0,0 l/m 0 min 0 min 0,0 UV-I 0 W/m 7,7 km/h (2 Bft)
13.02.2014 03:46 6,2 C 4,4 C 82 % 996,9 hPa 0,0 l/m 0 min 0 min 0,0 UV-I 0 W/m 12,9 km/h (3 Bft)
13.02.2014 03:48 6,1 C 4,4 C 82 % 996,9 hPa 0,0 l/m 0 min 0 min 0,0 UV-I 0 W/m 10,3 km/h (2 Bft)
13.02.2014 03:50 6,1 C 4,4 C 82 % 996,9 hPa 0,0 l/m 0 min 0 min 0,0 UV-I 0 W/m 20,6 km/h (4 Bft)
13.02.2014 03:52 6,1 C 4,4 C 81 % 996,9 hPa 0,0 l/m 0 min 0 min 0,0 UV-I 0 W/m 20,6 km/h (4 Bft)
13.02.2014 03:54 6,1 C 4,4 C 81 % 997,0 hPa 0,0 l/m 0 min 0 min 0,0 UV-I 0 W/m 20,6 km/h (4 Bft)
13.02.2014 03:56 6,2 C 4,4 C 81 % 996,9 hPa 0,0 l/m 0 min 0 min 0,0 UV-I 0 W/m 18,0 km/h (3 Bft)
13.02.2014 03:58 6,2 C 4,4 C 81 % 996,9 hPa 0,0 l/m 0 min 0 min 0,0 UV-I 0 W/m 7,7 km/h (2 Bft)
13.02.2014 04:00 6,2 C 4,4 C 81 % 997,0 hPa 0,0 l/m 0 min 0 min 0,0 UV-I 0 W/m 15,4 km/h (3 Bft)
13.02.2014 04:02 6,2 C 4,4 C 80 % 997,0 hPa 0,0 l/m 0 min 0 min 0,0 UV-I 0 W/m 18,0 km/h (3 Bft)
13.02.2014 04:04 6,2 C 4,4 C 80 % 997,1 hPa 0,0 l/m 0 min 0 min 0,0 UV-I 0 W/m 10,3 km/h (2 Bft)
13.02.2014 04:06 6,2 C 4,4 C 80 % 997,0 hPa 0,0 l/m 0 min 0 min 0,0 UV-I 0 W/m 12,9 km/h (3 Bft)
13.02.2014 04:08 6,2 C 4,4 C 80 % 997,1 hPa 0,0 l/m 0 min 0 min 0,0 UV-I 0 W/m 15,4 km/h (3 Bft)
13.02.2014 04:10 6,2 C 4,4 C 80 % 997,1 hPa 0,0 l/m 0 min 0 min 0,0 UV-I 0 W/m 10,3 km/h (2 Bft)
13.02.2014 04:12 6,2 C 4,4 C 80 % 997,0 hPa 0,0 l/m 0 min 0 min 0,0 UV-I 0 W/m 15,4 km/h (3 Bft)
13.02.2014 04:14 6,2 C 4,4 C 80 % 997,1 hPa 0,0 l/m 0 min 0 min 0,0 UV-I 0 W/m 15,4 km/h (3 Bft)
13.02.2014 04:16 6,1 C 4,4 C 80 % 997,1 hPa 0,0 l/m 0 min 0 min 0,0 UV-I 0 W/m 18,0 km/h (3 Bft)
13.02.2014 04:18 6,1 C 4,4 C 80 % 997,1 hPa 0,0 l/m 0 min 0 min 0,0 UV-I 0 W/m 15,4 km/h (3 Bft)
13.02.2014 04:20 6,1 C 4,4 C 80 % 997,1 hPa 0,0 l/m 0 min 0 min 0,0 UV-I 0 W/m 23,2 km/h (4 Bft)
13.02.2014 04:22 6,1 C 4,4 C 79 % 997,0 hPa 0,0 l/m 0 min 0 min 0,0 UV-I 0 W/m 20,6 km/h (4 Bft)
13.02.2014 04:24 6,1 C 4,4 C 80 % 997,0 hPa 0,0 l/m 0 min 0 min 0,0 UV-I 0 W/m 28,3 km/h (4 Bft)
13.02.2014 04:26 6,1 C 4,4 C 80 % 997,1 hPa 0,0 l/m 0 min 0 min 0,0 UV-I 0 W/m 23,2 km/h (4 Bft)
13.02.2014 04:28 6,1 C 4,4 C 80 % 997,1 hPa 0,0 l/m 0 min 0 min 0,0 UV-I 0 W/m 18,0 km/h (3 Bft)
13.02.2014 04:30 6,1 C 4,4 C 80 % 997,1 hPa 0,0 l/m 0 min 0 min 0,0 UV-I 0 W/m 15,4 km/h (3 Bft)
13.02.2014 04:32 6,1 C 4,4 C 80 % 997,0 hPa 0,0 l/m 0 min 0 min 0,0 UV-I 0 W/m 15,4 km/h (3 Bft)
13.02.2014 04:34 6,1 C 4,4 C 80 % 997,0 hPa 0,0 l/m 0 min 0 min 0,0 UV-I 0 W/m 12,9 km/h (3 Bft)
13.02.2014 04:36 6,1 C 4,4 C 80 % 997,0 hPa 0,0 l/m 0 min 0 min 0,0 UV-I 0 W/m 18,0 km/h (3 Bft)
13.02.2014 04:38 6,1 C 4,4 C 80 % 997,1 hPa 0,0 l/m 0 min 0 min 0,0 UV-I 0 W/m 23,2 km/h (4 Bft)
13.02.2014 04:40 6,1 C 4,4 C 80 % 997,0 hPa 0,0 l/m 0 min 0 min 0,0 UV-I 0 W/m 28,3 km/h (4 Bft)
13.02.2014 04:42 6,1 C 4,4 C 80 % 996,9 hPa 0,0 l/m 0 min 0 min 0,0 UV-I 0 W/m 18,0 km/h (3 Bft)
13.02.2014 04:44 6,1 C 4,4 C 81 % 996,9 hPa 0,0 l/m 0 min 0 min 0,0 UV-I 0 W/m 12,9 km/h (3 Bft)
13.02.2014 04:46 6,1 C 4,4 C 81 % 996,9 hPa 0,0 l/m 0 min 0 min 0,0 UV-I 0 W/m 5,1 km/h (1 Bft)
13.02.2014 04:48 6,1 C 4,4 C 81 % 996,9 hPa 0,0 l/m 0 min 0 min 0,0 UV-I 0 W/m 10,3 km/h (2 Bft)
13.02.2014 04:50 6,1 C 4,4 C 81 % 996,9 hPa 0,0 l/m 0 min 0 min 0,0 UV-I 0 W/m 20,6 km/h (4 Bft)
13.02.2014 04:52 6,1 C 4,4 C 81 % 996,9 hPa 0,0 l/m 0 min 0 min 0,0 UV-I 0 W/m 18,0 km/h (3 Bft)
13.02.2014 04:54 6,1 C 4,4 C 81 % 996,9 hPa 0,0 l/m 0 min 0 min 0,0 UV-I 0 W/m 18,0 km/h (3 Bft)
13.02.2014 04:56 6,1 C 4,4 C 81 % 996,9 hPa 0,0 l/m 0 min 0 min 0,0 UV-I 0 W/m 23,2 km/h (4 Bft)
13.02.2014 04:58 6,1 C 4,4 C 82 % 996,9 hPa 0,0 l/m 0 min 0 min 0,0 UV-I 0 W/m 15,4 km/h (3 Bft)
13.02.2014 05:00 6,0 C 4,4 C 82 % 996,8 hPa 0,0 l/m 0 min 0 min 0,0 UV-I 0 W/m 7,7 km/h (2 Bft)
13.02.2014 05:02 6,0 C 4,4 C 82 % 996,9 hPa 0,0 l/m 0 min 0 min 0,0 UV-I 0 W/m 12,9 km/h (3 Bft)
13.02.2014 05:04 6,0 C 4,4 C 82 % 997,0 hPa 0,0 l/m 0 min 0 min 0,0 UV-I 0 W/m 15,4 km/h (3 Bft)
13.02.2014 05:06 5,9 C 4,4 C 82 % 996,9 hPa 0,0 l/m 0 min 0 min 0,0 UV-I 0 W/m 12,9 km/h (3 Bft)
13.02.2014 05:08 5,9 C 4,4 C 82 % 996,8 hPa 0,0 l/m 0 min 0 min 0,0 UV-I 0 W/m 15,4 km/h (3 Bft)
13.02.2014 05:10 5,9 C 4,4 C 83 % 996,7 hPa 0,0 l/m 0 min 0 min 0,0 UV-I 0 W/m 23,2 km/h (4 Bft)
13.02.2014 05:12 5,9 C 4,4 C 83 % 996,8 hPa 0,0 l/m 0 min 0 min 0,0 UV-I 0 W/m 12,9 km/h (3 Bft)
13.02.2014 05:14 5,9 C 4,4 C 83 % 996,7 hPa 0,0 l/m 0 min 0 min 0,0 UV-I 0 W/m 18,0 km/h (3 Bft)
13.02.2014 05:16 6,0 C 4,4 C 83 % 996,7 hPa 0,0 l/m 0 min 0 min 0,0 UV-I 0 W/m 20,6 km/h (4 Bft)
13.02.2014 05:18 6,0 C 4,4 C 83 % 996,7 hPa 0,0 l/m 0 min 0 min 0,0 UV-I 0 W/m 15,4 km/h (3 Bft)
13.02.2014 05:20 6,0 C 4,4 C 84 % 996,9 hPa 0,0 l/m 0 min 0 min 0,0 UV-I 0 W/m 28,3 km/h (4 Bft)
13.02.2014 05:22 6,1 C 4,4 C 84 % 996,8 hPa 0,0 l/m 0 min 0 min 0,0 UV-I 0 W/m 18,0 km/h (3 Bft)
13.02.2014 05:24 6,1 C 4,4 C 84 % 996,7 hPa 0,0 l/m 0 min 0 min 0,0 UV-I 0 W/m 20,6 km/h (4 Bft)
13.02.2014 05:26 6,1 C 4,4 C 84 % 996,6 hPa 0,0 l/m 0 min 0 min 0,0 UV-I 0 W/m 20,6 km/h (4 Bft)
13.02.2014 05:28 6,2 C 4,4 C 83 % 996,6 hPa 0,0 l/m 0 min 0 min 0,0 UV-I 0 W/m 18,0 km/h (3 Bft)
13.02.2014 05:30 6,2 C 4,4 C 83 % 996,7 hPa 0,0 l/m 0 min 0 min 0,0 UV-I 0 W/m 20,6 km/h (4 Bft)
13.02.2014 05:32 6,2 C 4,4 C 83 % 996,6 hPa 0,0 l/m 0 min 0 min 0,0 UV-I 0 W/m 10,3 km/h (2 Bft)
13.02.2014 05:34 6,2 C 4,4 C 83 % 996,6 hPa 0,0 l/m 0 min 0 min 0,0 UV-I 0 W/m 18,0 km/h (3 Bft)
13.02.2014 05:36 6,2 C 5,0 C 83 % 996,5 hPa 0,0 l/m 0 min 0 min 0,0 UV-I 0 W/m 12,9 km/h (3 Bft)
13.02.2014 05:38 6,3 C 4,4 C 83 % 996,5 hPa 0,0 l/m 0 min 0 min 0,0 UV-I 0 W/m 25,7 km/h (4 Bft)
13.02.2014 05:40 6,3 C 4,4 C 83 % 996,4 hPa 0,0 l/m 0 min 0 min 0,0 UV-I 0 W/m 15,4 km/h (3 Bft)
13.02.2014 05:42 6,3 C 4,4 C 83 % 996,3 hPa 0,0 l/m 0 min 0 min 0,0 UV-I 0 W/m 12,9 km/h (3 Bft)
13.02.2014 05:44 6,3 C 4,4 C 83 % 996,4 hPa 0,0 l/m 0 min 0 min 0,0 UV-I 0 W/m 18,0 km/h (3 Bft)
13.02.2014 05:46 6,3 C 4,4 C 83 % 996,3 hPa 0,0 l/m 0 min 0 min 0,0 UV-I 0 W/m 12,9 km/h (3 Bft)
13.02.2014 05:48 6,3 C 4,4 C 83 % 996,4 hPa 0,0 l/m 0 min 0 min 0,0 UV-I 0 W/m 12,9 km/h (3 Bft)
13.02.2014 05:50 6,2 C 4,4 C 83 % 996,3 hPa 0,0 l/m 0 min 0 min 0,0 UV-I 0 W/m 20,6 km/h (4 Bft)
13.02.2014 05:52 6,2 C 4,4 C 83 % 996,4 hPa 0,0 l/m 0 min 0 min 0,0 UV-I 0 W/m 15,4 km/h (3 Bft)
13.02.2014 05:54 6,2 C 4,4 C 83 % 996,4 hPa 0,0 l/m 0 min 0 min 0,0 UV-I 0 W/m 12,9 km/h (3 Bft)
13.02.2014 05:56 6,2 C 4,4 C 83 % 996,4 hPa 0,0 l/m 0 min 0 min 0,0 UV-I 0 W/m 15,4 km/h (3 Bft)
13.02.2014 05:58 6,2 C 4,4 C 83 % 996,3 hPa 0,0 l/m 0 min 0 min 0,0 UV-I 0 W/m 18,0 km/h (3 Bft)
13.02.2014 06:00 6,2 C 4,4 C 83 % 996,3 hPa 0,0 l/m 0 min 0 min 0,0 UV-I 0 W/m 20,6 km/h (4 Bft)
13.02.2014 06:02 6,2 C 4,4 C 83 % 996,3 hPa 0,0 l/m 0 min 0 min 0,0 UV-I 0 W/m 12,9 km/h (3 Bft)
13.02.2014 06:04 6,2 C 4,4 C 83 % 996,3 hPa 0,0 l/m 0 min 0 min 0,0 UV-I 0 W/m 18,0 km/h (3 Bft)
13.02.2014 06:06 6,2 C 4,4 C 83 % 996,4 hPa 0,0 l/m 0 min 0 min 0,0 UV-I 0 W/m 18,0 km/h (3 Bft)
13.02.2014 06:08 6,2 C 4,4 C 83 % 996,4 hPa 0,0 l/m 0 min 0 min 0,0 UV-I 0 W/m 20,6 km/h (4 Bft)
13.02.2014 06:10 6,2 C 4,4 C 83 % 996,5 hPa 0,0 l/m 0 min 0 min 0,0 UV-I 0 W/m 20,6 km/h (4 Bft)
13.02.2014 06:12 6,2 C 4,4 C 83 % 996,4 hPa 0,0 l/m 0 min 0 min 0,0 UV-I 0 W/m 15,4 km/h (3 Bft)
13.02.2014 06:14 6,2 C 4,4 C 83 % 996,6 hPa 0,0 l/m 0 min 0 min 0,0 UV-I 0 W/m 20,6 km/h (4 Bft)
13.02.2014 06:16 6,2 C 4,4 C 83 % 996,7 hPa 0,0 l/m 0 min 0 min 0,0 UV-I 0 W/m 18,0 km/h (3 Bft)
13.02.2014 06:18 6,2 C 4,4 C 83 % 996,7 hPa 0,0 l/m 0 min 0 min 0,0 UV-I 0 W/m 15,4 km/h (3 Bft)
13.02.2014 06:20 6,2 C 4,4 C 83 % 996,7 hPa 0,0 l/m 0 min 0 min 0,0 UV-I 0 W/m 28,3 km/h (4 Bft)
13.02.2014 06:22 6,2 C 4,4 C 83 % 996,7 hPa 0,0 l/m 0 min 0 min 0,0 UV-I 0 W/m 25,7 km/h (4 Bft)
13.02.2014 06:24 6,2 C 4,4 C 83 % 996,7 hPa 0,0 l/m 0 min 0 min 0,0 UV-I 0 W/m 15,4 km/h (3 Bft)
13.02.2014 06:26 6,2 C 4,4 C 83 % 996,8 hPa 0,0 l/m 0 min 0 min 0,0 UV-I 0 W/m 12,9 km/h (3 Bft)
13.02.2014 06:28 6,2 C 4,4 C 82 % 996,7 hPa 0,0 l/m 0 min 0 min 0,0 UV-I 0 W/m 25,7 km/h (4 Bft)
13.02.2014 06:30 6,2 C 4,4 C 83 % 996,6 hPa 0,0 l/m 0 min 0 min 0,0 UV-I 0 W/m 18,0 km/h (3 Bft)
13.02.2014 06:32 6,2 C 4,4 C 83 % 996,6 hPa 0,0 l/m 0 min 0 min 0,0 UV-I 0 W/m 12,9 km/h (3 Bft)
13.02.2014 06:34 6,1 C 4,4 C 83 % 996,6 hPa 0,0 l/m 0 min 0 min 0,0 UV-I 0 W/m 41,2 km/h (6 Bft)
13.02.2014 06:36 6,1 C 4,4 C 83 % 996,5 hPa 0,0 l/m 0 min 0 min 0,0 UV-I 0 W/m 23,2 km/h (4 Bft)
13.02.2014 06:38 6,1 C 4,4 C 83 % 996,5 hPa 0,0 l/m 0 min 0 min 0,0 UV-I 0 W/m 23,2 km/h (4 Bft)
13.02.2014 06:40 6,1 C 4,4 C 83 % 996,6 hPa 0,0 l/m 0 min 0 min 0,0 UV-I 0 W/m 15,4 km/h (3 Bft)
13.02.2014 06:42 6,1 C 4,4 C 82 % 996,5 hPa 0,0 l/m 0 min 0 min 0,0 UV-I 0 W/m 23,2 km/h (4 Bft)
13.02.2014 06:44 6,1 C 4,4 C 83 % 996,3 hPa 0,0 l/m 0 min 0 min 0,0 UV-I 0 W/m 10,3 km/h (2 Bft)
13.02.2014 06:46 6,0 C 3,9 C 83 % 996,4 hPa 0,0 l/m 0 min 0 min 0,0 UV-I 0 W/m 7,7 km/h (2 Bft)
13.02.2014 06:48 5,9 C 3,9 C 83 % 996,4 hPa 0,0 l/m 0 min 0 min 0,0 UV-I 0 W/m 10,3 km/h (2 Bft)
13.02.2014 06:50 5,9 C 3,9 C 83 % 996,6 hPa 0,0 l/m 0 min 0 min 0,0 UV-I 0 W/m 18,0 km/h (3 Bft)
13.02.2014 06:52 5,9 C 3,9 C 83 % 996,5 hPa 0,0 l/m 0 min 0 min 0,0 UV-I 0 W/m 7,7 km/h (2 Bft)
13.02.2014 06:54 5,9 C 3,9 C 83 % 996,5 hPa 0,0 l/m 0 min 0 min 0,0 UV-I 0 W/m 18,0 km/h (3 Bft)
13.02.2014 06:56 5,9 C 3,9 C 83 % 996,5 hPa 0,0 l/m 0 min 0 min 0,0 UV-I 0 W/m 25,7 km/h (4 Bft)
13.02.2014 06:58 5,9 C 3,9 C 83 % 996,6 hPa 0,0 l/m 0 min 0 min 0,0 UV-I 0 W/m 25,7 km/h (4 Bft)
13.02.2014 07:00 5,9 C 3,9 C 83 % 996,6 hPa 0,0 l/m 0 min 0 min 0,0 UV-I 0 W/m 15,4 km/h (3 Bft)
13.02.2014 07:02 5,8 C 3,9 C 83 % 996,6 hPa 0,0 l/m 0 min 0 min 0,0 UV-I 0 W/m 20,6 km/h (4 Bft)
13.02.2014 07:04 5,8 C 3,9 C 83 % 996,5 hPa 0,0 l/m 0 min 0 min 0,0 UV-I 0 W/m 2,6 km/h (1 Bft)
13.02.2014 07:06 5,8 C 3,9 C 83 % 996,6 hPa 0,0 l/m 0 min 0 min 0,0 UV-I 0 W/m 12,9 km/h (3 Bft)
13.02.2014 07:08 5,7 C 3,9 C 83 % 996,5 hPa 0,0 l/m 0 min 0 min 0,0 UV-I 0 W/m 12,9 km/h (3 Bft)
13.02.2014 07:10 5,7 C 3,9 C 83 % 996,5 hPa 0,0 l/m 0 min 0 min 0,0 UV-I 0 W/m 12,9 km/h (3 Bft)
13.02.2014 07:12 5,8 C 3,9 C 83 % 996,6 hPa 0,0 l/m 0 min 0 min 0,0 UV-I 0 W/m 28,3 km/h (4 Bft)
13.02.2014 07:14 5,8 C 3,9 C 83 % 996,5 hPa 0,0 l/m 0 min 0 min 0,0 UV-I 0 W/m 28,3 km/h (4 Bft)
13.02.2014 07:16 5,8 C 3,9 C 83 % 996,5 hPa 0,0 l/m 0 min 0 min 0,0 UV-I 0 W/m 12,9 km/h (3 Bft)
13.02.2014 07:18 5,8 C 3,9 C 83 % 996,5 hPa 0,0 l/m 0 min 0 min 0,0 UV-I 0 W/m 12,9 km/h (3 Bft)
13.02.2014 07:20 5,8 C 3,9 C 83 % 996,5 hPa 0,0 l/m 0 min 0 min 0,0 UV-I 0 W/m 15,4 km/h (3 Bft)
13.02.2014 07:22 5,8 C 3,9 C 83 % 996,6 hPa 0,0 l/m 0 min 0 min 0,0 UV-I 0 W/m 20,6 km/h (4 Bft)
13.02.2014 07:24 5,8 C 3,9 C 83 % 996,5 hPa 0,0 l/m 0 min 0 min 0,0 UV-I 0 W/m 20,6 km/h (4 Bft)
13.02.2014 07:26 5,8 C 3,9 C 83 % 996,4 hPa 0,0 l/m 0 min 0 min 0,0 UV-I 0 W/m 20,6 km/h (4 Bft)
13.02.2014 07:28 5,9 C 3,9 C 83 % 996,4 hPa 0,0 l/m 0 min 0 min 0,0 UV-I 0 W/m 5,1 km/h (1 Bft)
13.02.2014 07:30 5,8 C 3,9 C 82 % 996,3 hPa 0,0 l/m 0 min 0 min 0,0 UV-I 0 W/m 15,4 km/h (3 Bft)
13.02.2014 07:32 5,8 C 3,9 C 83 % 996,3 hPa 0,0 l/m 0 min 0 min 0,0 UV-I 0 W/m 18,0 km/h (3 Bft)
13.02.2014 07:34 5,8 C 3,9 C 83 % 996,2 hPa 0,0 l/m 0 min 0 min 0,0 UV-I 0 W/m 18,0 km/h (3 Bft)
13.02.2014 07:36 5,8 C 3,9 C 82 % 996,1 hPa 0,0 l/m 0 min 0 min 0,0 UV-I 0 W/m 12,9 km/h (3 Bft)
13.02.2014 07:38 5,8 C 3,9 C 82 % 996,1 hPa 0,0 l/m 0 min 0 min 0,0 UV-I 0 W/m 5,1 km/h (1 Bft)
13.02.2014 07:40 5,8 C 3,9 C 82 % 996,1 hPa 0,0 l/m 0 min 0 min 0,0 UV-I 0 W/m 18,0 km/h (3 Bft)
13.02.2014 07:42 5,8 C 4,4 C 82 % 996,1 hPa 0,0 l/m 0 min 0 min 0,0 UV-I 0 W/m 18,0 km/h (3 Bft)
13.02.2014 07:44 5,9 C 4,4 C 82 % 996,1 hPa 0,0 l/m 0 min 0 min 0,0 UV-I 0 W/m 12,9 km/h (3 Bft)
13.02.2014 07:46 5,9 C 4,4 C 82 % 996,0 hPa 0,0 l/m 0 min 0 min 0,0 UV-I 0 W/m 18,0 km/h (3 Bft)
13.02.2014 07:48 5,9 C 4,4 C 82 % 995,9 hPa 0,0 l/m 0 min 0 min 0,0 UV-I 0 W/m 12,9 km/h (3 Bft)
13.02.2014 07:50 5,9 C 4,4 C 82 % 996,0 hPa 0,0 l/m 0 min 0 min 0,0 UV-I 0 W/m 20,6 km/h (4 Bft)
13.02.2014 07:52 5,9 C 4,4 C 82 % 996,0 hPa 0,0 l/m 0 min 0 min 0,0 UV-I 5 W/m 15,4 km/h (3 Bft)
13.02.2014 07:54 5,9 C 4,4 C 82 % 996,0 hPa 0,0 l/m 0 min 0 min 0,0 UV-I 7 W/m 10,3 km/h (2 Bft)
13.02.2014 07:56 5,9 C 4,4 C 82 % 996,0 hPa 0,0 l/m 0 min 0 min 0,0 UV-I 9 W/m 18,0 km/h (3 Bft)
13.02.2014 07:58 5,9 C 4,4 C 82 % 996,0 hPa 0,0 l/m 0 min 0 min 0,0 UV-I 9 W/m 20,6 km/h (4 Bft)
13.02.2014 08:00 6,0 C 4,4 C 82 % 995,9 hPa 0,0 l/m 0 min 0 min 0,0 UV-I 11 W/m 25,7 km/h (4 Bft)
13.02.2014 08:02 6,0 C 4,4 C 82 % 995,8 hPa 0,0 l/m 0 min 0 min 0,0 UV-I 12 W/m 12,9 km/h (3 Bft)
13.02.2014 08:04 6,0 C 4,4 C 82 % 995,9 hPa 0,0 l/m 0 min 0 min 0,0 UV-I 14 W/m 18,0 km/h (3 Bft)
13.02.2014 08:06 6,1 C 4,4 C 82 % 995,9 hPa 0,0 l/m 0 min 0 min 0,0 UV-I 14 W/m 28,3 km/h (4 Bft)
13.02.2014 08:08 6,1 C 4,4 C 82 % 995,9 hPa 0,0 l/m 0 min 0 min 0,0 UV-I 12 W/m 18,0 km/h (3 Bft)
13.02.2014 08:10 6,1 C 4,4 C 81 % 995,8 hPa 0,0 l/m 0 min 0 min 0,0 UV-I 12 W/m 15,4 km/h (3 Bft)
13.02.2014 08:12 6,1 C 4,4 C 81 % 995,8 hPa 0,0 l/m 0 min 0 min 0,0 UV-I 12 W/m 12,9 km/h (3 Bft)
13.02.2014 08:14 6,1 C 4,4 C 81 % 995,9 hPa 0,0 l/m 0 min 0 min 0,0 UV-I 14 W/m 23,2 km/h (4 Bft)
13.02.2014 08:16 6,2 C 4,4 C 81 % 995,9 hPa 0,0 l/m 0 min 0 min 0,0 UV-I 14 W/m 12,9 km/h (3 Bft)
13.02.2014 08:18 6,2 C 4,4 C 81 % 996,0 hPa 0,0 l/m 0 min 0 min 0,0 UV-I 16 W/m 20,6 km/h (4 Bft)
13.02.2014 08:20 6,2 C 4,4 C 81 % 996,0 hPa 0,0 l/m 0 min 0 min 0,0 UV-I 16 W/m 15,4 km/h (3 Bft)
13.02.2014 08:22 6,1 C 4,4 C 81 % 995,9 hPa 0,0 l/m 0 min 0 min 0,0 UV-I 18 W/m 30,9 km/h (5 Bft)
13.02.2014 08:24 6,2 C 4,4 C 81 % 995,9 hPa 0,0 l/m 0 min 0 min 0,0 UV-I 19 W/m 20,6 km/h (4 Bft)
13.02.2014 08:26 6,2 C 4,4 C 81 % 995,9 hPa 0,0 l/m 0 min 0 min 0,0 UV-I 21 W/m 18,0 km/h (3 Bft)
13.02.2014 08:28 6,2 C 4,4 C 81 % 995,8 hPa 0,0 l/m 0 min 0 min 0,0 UV-I 23 W/m 20,6 km/h (4 Bft)
13.02.2014 08:30 6,2 C 4,4 C 81 % 995,7 hPa 0,0 l/m 0 min 0 min 0,0 UV-I 25 W/m 10,3 km/h (2 Bft)
13.02.2014 08:32 6,2 C 4,4 C 81 % 995,6 hPa 0,0 l/m 0 min 0 min 0,0 UV-I 25 W/m 12,9 km/h (3 Bft)
13.02.2014 08:34 6,2 C 4,4 C 81 % 995,7 hPa 0,0 l/m 0 min 0 min 0,0 UV-I 26 W/m 18,0 km/h (3 Bft)
13.02.2014 08:36 6,2 C 4,4 C 81 % 995,7 hPa 0,0 l/m 0 min 0 min 0,0 UV-I 28 W/m 10,3 km/h (2 Bft)
13.02.2014 08:38 6,2 C 4,4 C 81 % 995,7 hPa 0,0 l/m 0 min 0 min 0,0 UV-I 28 W/m 12,9 km/h (3 Bft)
13.02.2014 08:40 6,2 C 4,4 C 81 % 995,7 hPa 0,0 l/m 0 min 0 min 0,0 UV-I 32 W/m 18,0 km/h (3 Bft)
13.02.2014 08:42 6,2 C 4,4 C 81 % 995,7 hPa 0,0 l/m 0 min 0 min 0,0 UV-I 33 W/m 10,3 km/h (2 Bft)
13.02.2014 08:44 6,3 C 4,4 C 81 % 995,6 hPa 0,0 l/m 0 min 0 min 0,0 UV-I 33 W/m 15,4 km/h (3 Bft)
13.02.2014 08:46 6,3 C 4,4 C 81 % 995,5 hPa 0,0 l/m 0 min 0 min 0,0 UV-I 35 W/m 12,9 km/h (3 Bft)
13.02.2014 08:48 6,2 C 4,4 C 81 % 995,5 hPa 0,0 l/m 0 min 0 min 0,0 UV-I 37 W/m 7,7 km/h (2 Bft)
13.02.2014 08:50 6,2 C 4,4 C 81 % 995,5 hPa 0,0 l/m 0 min 0 min 0,0 UV-I 39 W/m 12,9 km/h (3 Bft)
13.02.2014 08:52 6,2 C 5,0 C 81 % 995,6 hPa 0,0 l/m 0 min 0 min 0,0 UV-I 40 W/m 7,7 km/h (2 Bft)
13.02.2014 08:54 6,2 C 5,0 C 81 % 995,5 hPa 0,0 l/m 0 min 0 min 0,0 UV-I 42 W/m 12,9 km/h (3 Bft)
13.02.2014 08:56 6,2 C 5,0 C 82 % 995,3 hPa 0,0 l/m 0 min 0 min 0,0 UV-I 44 W/m 12,9 km/h (3 Bft)
13.02.2014 08:58 6,2 C 5,0 C 81 % 995,4 hPa 0,0 l/m 0 min 0 min 0,0 UV-I 46 W/m 10,3 km/h (2 Bft)
13.02.2014 09:00 6,2 C 5,0 C 82 % 995,3 hPa 0,0 l/m 0 min 0 min 0,0 UV-I 44 W/m 10,3 km/h (2 Bft)
13.02.2014 09:02 6,2 C 5,0 C 82 % 995,5 hPa 0,0 l/m 0 min 0 min 0,0 UV-I 44 W/m 10,3 km/h (2 Bft)
13.02.2014 09:04 6,2 C 5,0 C 82 % 995,4 hPa 0,0 l/m 0 min 0 min 0,0 UV-I 44 W/m 10,3 km/h (2 Bft)
13.02.2014 09:06 6,2 C 5,0 C 82 % 995,5 hPa 0,0 l/m 0 min 0 min 0,0 UV-I 47 W/m 10,3 km/h (2 Bft)
13.02.2014 09:08 6,2 C 5,0 C 82 % 995,5 hPa 0,0 l/m 0 min 0 min 0,0 UV-I 49 W/m 12,9 km/h (3 Bft)
13.02.2014 09:10 6,2 C 5,0 C 82 % 995,6 hPa 0,0 l/m 0 min 0 min 0,0 UV-I 51 W/m 10,3 km/h (2 Bft)
13.02.2014 09:12 6,2 C 5,0 C 82 % 995,6 hPa 0,0 l/m 0 min 0 min 0,0 UV-I 53 W/m 10,3 km/h (2 Bft)
13.02.2014 09:14 6,2 C 5,0 C 82 % 995,5 hPa 0,0 l/m 0 min 0 min 0,0 UV-I 51 W/m 7,7 km/h (2 Bft)
13.02.2014 09:16 6,2 C 5,0 C 82 % 995,5 hPa 0,0 l/m 0 min 0 min 0,0 UV-I 51 W/m 20,6 km/h (4 Bft)
13.02.2014 09:18 6,2 C 5,0 C 82 % 995,3 hPa 0,0 l/m 0 min 0 min 0,0 UV-I 53 W/m 2,6 km/h (1 Bft)
13.02.2014 09:20 6,2 C 5,0 C 83 % 995,3 hPa 0,0 l/m 0 min 0 min 0,0 UV-I 54 W/m 10,3 km/h (2 Bft)
13.02.2014 09:22 6,2 C 5,0 C 83 % 995,3 hPa 0,0 l/m 0 min 0 min 0,0 UV-I 56 W/m 2,6 km/h (1 Bft)
13.02.2014 09:24 6,2 C 5,0 C 83 % 995,2 hPa 0,0 l/m 0 min 0 min 0,0 UV-I 56 W/m 10,3 km/h (2 Bft)
13.02.2014 09:26 6,2 C 5,0 C 83 % 995,2 hPa 0,0 l/m 0 min 0 min 0,0 UV-I 56 W/m 7,7 km/h (2 Bft)
13.02.2014 09:28 6,2 C 5,0 C 83 % 995,3 hPa 0,0 l/m 0 min 0 min 0,0 UV-I 56 W/m 5,1 km/h (1 Bft)
13.02.2014 09:30 6,2 C 5,0 C 83 % 995,2 hPa 0,0 l/m 0 min 0 min 0,0 UV-I 60 W/m 0,0 km/h (0 Bft)
13.02.2014 09:32 6,2 C 5,0 C 83 % 995,2 hPa 0,0 l/m 0 min 0 min 0,0 UV-I 62 W/m 7,7 km/h (2 Bft)
13.02.2014 09:34 6,2 C 5,0 C 83 % 995,2 hPa 0,0 l/m 0 min 0 min 0,0 UV-I 63 W/m 10,3 km/h (2 Bft)
13.02.2014 09:36 6,2 C 5,0 C 83 % 995,2 hPa 0,0 l/m 0 min 0 min 0,0 UV-I 65 W/m 5,1 km/h (1 Bft)
13.02.2014 09:38 6,2 C 5,0 C 83 % 995,1 hPa 0,0 l/m 0 min 0 min 0,0 UV-I 69 W/m 5,1 km/h (1 Bft)
13.02.2014 09:40 6,2 C 5,0 C 83 % 995,1 hPa 0,0 l/m 0 min 0 min 0,0 UV-I 70 W/m 7,7 km/h (2 Bft)
13.02.2014 09:42 6,2 C 5,0 C 83 % 995,0 hPa 0,0 l/m 0 min 0 min 0,0 UV-I 72 W/m 12,9 km/h (3 Bft)
13.02.2014 09:44 6,2 C 5,0 C 83 % 995,0 hPa 0,0 l/m 0 min 0 min 0,0 UV-I 76 W/m 2,6 km/h (1 Bft)
13.02.2014 09:46 6,3 C 5,0 C 83 % 994,9 hPa 0,0 l/m 0 min 0 min 0,0 UV-I 76 W/m 0,0 km/h (0 Bft)
13.02.2014 09:48 6,3 C 5,0 C 83 % 994,8 hPa 0,0 l/m 0 min 0 min 0,0 UV-I 79 W/m 10,3 km/h (2 Bft)
13.02.2014 09:50 6,4 C 5,6 C 83 % 994,8 hPa 0,0 l/m 0 min 0 min 0,0 UV-I 81 W/m 15,4 km/h (3 Bft)
13.02.2014 09:52 6,4 C 5,6 C 83 % 994,8 hPa 0,0 l/m 0 min 0 min 0,0 UV-I 83 W/m 7,7 km/h (2 Bft)
13.02.2014 09:54 6,4 C 5,6 C 83 % 994,9 hPa 0,0 l/m 0 min 0 min 0,0 UV-I 84 W/m 7,7 km/h (2 Bft)
13.02.2014 09:56 6,4 C 5,6 C 83 % 994,8 hPa 0,0 l/m 0 min 0 min 0,0 UV-I 84 W/m 5,1 km/h (1 Bft)
13.02.2014 09:58 6,5 C 5,6 C 83 % 994,8 hPa 0,0 l/m 0 min 0 min 0,0 UV-I 84 W/m 10,3 km/h (2 Bft)
13.02.2014 10:00 6,5 C 5,6 C 83 % 994,8 hPa 0,0 l/m 0 min 0 min 0,0 UV-I 84 W/m 5,1 km/h (1 Bft)
13.02.2014 10:02 6,6 C 5,6 C 83 % 994,6 hPa 0,0 l/m 0 min 0 min 0,0 UV-I 83 W/m 10,3 km/h (2 Bft)
13.02.2014 10:04 6,6 C 5,6 C 82 % 994,6 hPa 0,0 l/m 0 min 0 min 0,0 UV-I 81 W/m 7,7 km/h (2 Bft)
13.02.2014 10:06 6,6 C 5,6 C 82 % 994,5 hPa 0,0 l/m 0 min 0 min 0,0 UV-I 79 W/m 7,7 km/h (2 Bft)
13.02.2014 10:08 6,6 C 5,6 C 82 % 994,5 hPa 0,0 l/m 0 min 0 min 0,0 UV-I 79 W/m 10,3 km/h (2 Bft)
13.02.2014 10:10 6,6 C 5,6 C 83 % 994,4 hPa 0,0 l/m 0 min 0 min 0,0 UV-I 81 W/m 7,7 km/h (2 Bft)
13.02.2014 10:12 6,6 C 5,6 C 82 % 994,4 hPa 0,0 l/m 0 min 0 min 0,0 UV-I 83 W/m 0,0 km/h (0 Bft)
13.02.2014 10:14 6,7 C 5,6 C 82 % 994,4 hPa 0,0 l/m 0 min 0 min 0,0 UV-I 84 W/m 10,3 km/h (2 Bft)
13.02.2014 10:16 6,7 C 5,6 C 82 % 994,3 hPa 0,0 l/m 0 min 0 min 0,0 UV-I 86 W/m 15,4 km/h (3 Bft)
13.02.2014 10:18 6,7 C 5,6 C 82 % 994,3 hPa 0,0 l/m 0 min 0 min 0,0 UV-I 88 W/m 7,7 km/h (2 Bft)
13.02.2014 10:20 6,7 C 5,6 C 82 % 994,2 hPa 0,0 l/m 0 min 0 min 0,0 UV-I 88 W/m 15,4 km/h (3 Bft)
13.02.2014 10:22 6,7 C 5,6 C 82 % 994,2 hPa 0,0 l/m 0 min 0 min 0,0 UV-I 90 W/m 12,9 km/h (3 Bft)
13.02.2014 10:24 6,7 C 6,1 C 82 % 994,1 hPa 0,0 l/m 0 min 0 min 0,0 UV-I 91 W/m 12,9 km/h (3 Bft)
13.02.2014 10:26 6,7 C 6,1 C 82 % 994,1 hPa 0,0 l/m 0 min 0 min 0,0 UV-I 93 W/m 0,0 km/h (0 Bft)
13.02.2014 10:28 6,7 C 6,1 C 82 % 994,1 hPa 0,0 l/m 0 min 0 min 0,0 UV-I 97 W/m 10,3 km/h (2 Bft)
13.02.2014 10:30 6,7 C 6,1 C 82 % 994,0 hPa 0,0 l/m 0 min 0 min 0,0 UV-I 98 W/m 12,9 km/h (3 Bft)
13.02.2014 10:32 6,7 C 6,1 C 82 % 993,9 hPa 0,0 l/m 0 min 0 min 0,0 UV-I 98 W/m 18,0 km/h (3 Bft)
13.02.2014 10:34 6,6 C 6,1 C 82 % 993,9 hPa 0,0 l/m 0 min 0 min 0,0 UV-I 95 W/m 7,7 km/h (2 Bft)
13.02.2014 10:36 6,6 C 6,1 C 83 % 993,9 hPa 0,0 l/m 0 min 0 min 0,0 UV-I 98 W/m 12,9 km/h (3 Bft)
13.02.2014 10:38 6,6 C 6,1 C 83 % 993,9 hPa 0,0 l/m 0 min 0 min 0,0 UV-I 98 W/m 7,7 km/h (2 Bft)
13.02.2014 10:40 6,6 C 6,1 C 83 % 993,8 hPa 0,0 l/m 0 min 0 min 0,0 UV-I 95 W/m 10,3 km/h (2 Bft)
13.02.2014 10:42 6,6 C 6,1 C 83 % 993,9 hPa 0,0 l/m 0 min 0 min 0,0 UV-I 83 W/m 7,7 km/h (2 Bft)
13.02.2014 10:44 6,6 C 6,1 C 83 % 993,8 hPa 0,0 l/m 0 min 0 min 0,0 UV-I 77 W/m 12,9 km/h (3 Bft)
13.02.2014 10:46 6,6 C 6,1 C 83 % 993,8 hPa 0,0 l/m 0 min 0 min 0,0 UV-I 86 W/m 10,3 km/h (2 Bft)
13.02.2014 10:48 6,6 C 6,1 C 83 % 993,7 hPa 0,0 l/m 0 min 0 min 0,0 UV-I 93 W/m 15,4 km/h (3 Bft)
13.02.2014 10:50 6,6 C 6,1 C 83 % 993,7 hPa 0,0 l/m 0 min 0 min 0,0 UV-I 97 W/m 0,0 km/h (0 Bft)
13.02.2014 10:52 6,7 C 6,1 C 83 % 993,6 hPa 0,0 l/m 0 min 0 min 0,0 UV-I 98 W/m 10,3 km/h (2 Bft)
13.02.2014 10:54 6,7 C 6,1 C 83 % 993,6 hPa 0,0 l/m 0 min 0 min 0,0 UV-I 95 W/m 7,7 km/h (2 Bft)
13.02.2014 10:56 6,7 C 6,1 C 83 % 993,6 hPa 0,0 l/m 0 min 0 min 0,0 UV-I 100 W/m 12,9 km/h (3 Bft)
13.02.2014 10:58 6,7 C 6,1 C 83 % 993,6 hPa 0,0 l/m 0 min 0 min 0,0 UV-I 102 W/m 7,7 km/h (2 Bft)
13.02.2014 11:00 6,7 C 6,1 C 83 % 993,5 hPa 0,0 l/m 0 min 0 min 0,0 UV-I 102 W/m 2,6 km/h (1 Bft)
13.02.2014 11:02 6,7 C 6,1 C 84 % 993,5 hPa 0,0 l/m 0 min 0 min 0,0 UV-I 104 W/m 5,1 km/h (1 Bft)
13.02.2014 11:04 6,7 C 6,1 C 84 % 993,3 hPa 0,0 l/m 0 min 0 min 0,0 UV-I 105 W/m 15,4 km/h (3 Bft)
13.02.2014 11:06 6,7 C 6,1 C 84 % 993,3 hPa 0,0 l/m 0 min 0 min 0,0 UV-I 107 W/m 12,9 km/h (3 Bft)
13.02.2014 11:08 6,7 C 6,1 C 84 % 993,3 hPa 0,0 l/m 0 min 0 min 0,0 UV-I 107 W/m 10,3 km/h (2 Bft)
13.02.2014 11:10 6,7 C 6,1 C 84 % 993,2 hPa 0,0 l/m 0 min 0 min 0,0 UV-I 105 W/m 12,9 km/h (3 Bft)
13.02.2014 11:12 6,7 C 6,1 C 84 % 993,3 hPa 0,0 l/m 0 min 0 min 0,0 UV-I 105 W/m 10,3 km/h (2 Bft)
13.02.2014 11:14 6,8 C 6,1 C 84 % 993,2 hPa 0,0 l/m 0 min 0 min 0,0 UV-I 113 W/m 12,9 km/h (3 Bft)
13.02.2014 11:16 6,8 C 6,7 C 84 % 993,2 hPa 0,0 l/m 0 min 0 min 0,0 UV-I 123 W/m 5,1 km/h (1 Bft)
13.02.2014 11:18 6,9 C 6,7 C 84 % 993,1 hPa 0,0 l/m 0 min 0 min 0,0 UV-I 127 W/m 5,1 km/h (1 Bft)
13.02.2014 11:20 6,9 C 6,7 C 84 % 993,1 hPa 0,0 l/m 0 min 0 min 0,0 UV-I 127 W/m 0,0 km/h (0 Bft)
13.02.2014 11:22 6,9 C 6,7 C 84 % 993,0 hPa 0,0 l/m 0 min 0 min 0,0 UV-I 125 W/m 5,1 km/h (1 Bft)
13.02.2014 11:24 7,0 C 6,7 C 84 % 993,0 hPa 0,0 l/m 0 min 0 min 0,0 UV-I 121 W/m 7,7 km/h (2 Bft)
13.02.2014 11:26 7,0 C 6,7 C 83 % 992,9 hPa 0,0 l/m 0 min 0 min 0,0 UV-I 116 W/m 0,0 km/h (0 Bft)
13.02.2014 11:28 7,1 C 6,7 C 83 % 992,9 hPa 0,0 l/m 0 min 0 min 0,0 UV-I 113 W/m 18,0 km/h (3 Bft)
13.02.2014 11:30 7,1 C 6,7 C 83 % 992,8 hPa 0,0 l/m 0 min 0 min 0,0 UV-I 111 W/m 10,3 km/h (2 Bft)
13.02.2014 11:32 7,1 C 6,7 C 83 % 992,9 hPa 0,0 l/m 0 min 0 min 0,0 UV-I 104 W/m 2,6 km/h (1 Bft)
13.02.2014 11:34 7,2 C 6,7 C 83 % 992,8 hPa 0,0 l/m 0 min 0 min 0,0 UV-I 97 W/m 0,0 km/h (0 Bft)
13.02.2014 11:36 7,2 C 6,7 C 83 % 992,8 hPa 0,0 l/m 0 min 0 min 0,0 UV-I 90 W/m 5,1 km/h (1 Bft)
13.02.2014 11:38 7,2 C 6,7 C 83 % 992,8 hPa 0,0 l/m 0 min 0 min 0,0 UV-I 84 W/m 0,0 km/h (0 Bft)
13.02.2014 11:40 7,3 C 6,7 C 82 % 992,8 hPa 0,0 l/m 0 min 0 min 0,0 UV-I 79 W/m 10,3 km/h (2 Bft)
13.02.2014 11:42 7,3 C 6,7 C 82 % 992,8 hPa 0,0 l/m 0 min 0 min 0,0 UV-I 74 W/m 7,7 km/h (2 Bft)
13.02.2014 11:44 7,3 C 6,7 C 81 % 992,8 hPa 0,0 l/m 0 min 0 min 0,0 UV-I 63 W/m 5,1 km/h (1 Bft)
13.02.2014 11:46 7,4 C 6,7 C 80 % 992,7 hPa 0,0 l/m 0 min 0 min 0,0 UV-I 58 W/m 12,9 km/h (3 Bft)
13.02.2014 11:48 7,4 C 6,7 C 79 % 992,7 hPa 0,0 l/m 0 min 0 min 0,0 UV-I 56 W/m 12,9 km/h (3 Bft)
13.02.2014 11:50 7,4 C 6,7 C 79 % 992,7 hPa 0,0 l/m 0 min 0 min 0,0 UV-I 54 W/m 12,9 km/h (3 Bft)
13.02.2014 11:52 7,4 C 6,1 C 78 % 992,5 hPa 0,0 l/m 0 min 2 min 0,0 UV-I 51 W/m 10,3 km/h (2 Bft)
13.02.2014 11:54 7,4 C 6,1 C 78 % 992,5 hPa 0,0 l/m 0 min 2 min 0,0 UV-I 47 W/m 25,7 km/h (4 Bft)
13.02.2014 11:56 7,4 C 5,6 C 77 % 992,6 hPa 0,0 l/m 0 min 2 min 0,0 UV-I 42 W/m 18,0 km/h (3 Bft)
13.02.2014 11:58 7,4 C 5,6 C 78 % 992,5 hPa 0,0 l/m 0 min 2 min 0,0 UV-I 40 W/m 10,3 km/h (2 Bft)
13.02.2014 12:00 7,3 C 5,0 C 79 % 992,5 hPa 0,0 l/m 0 min 2 min 0,0 UV-I 40 W/m 12,9 km/h (3 Bft)
13.02.2014 12:02 7,2 C 5,0 C 79 % 992,4 hPa 0,2 l/m 0 min 2 min 0,0 UV-I 37 W/m 20,6 km/h (4 Bft)
13.02.2014 12:04 7,1 C 4,4 C 80 % 992,4 hPa 0,0 l/m 0 min 2 min 0,0 UV-I 37 W/m 10,3 km/h (2 Bft)
13.02.2014 12:06 7,0 C 4,4 C 81 % 992,5 hPa 0,0 l/m 0 min 2 min 0,0 UV-I 37 W/m 10,3 km/h (2 Bft)
13.02.2014 12:08 6,9 C 4,4 C 82 % 992,4 hPa 0,0 l/m 0 min 2 min 0,0 UV-I 37 W/m 5,1 km/h (1 Bft)
13.02.2014 12:10 6,8 C 4,4 C 82 % 992,4 hPa 0,0 l/m 0 min 2 min 0,0 UV-I 39 W/m 2,6 km/h (1 Bft)
13.02.2014 12:12 6,7 C 4,4 C 83 % 992,3 hPa 0,2 l/m 0 min 2 min 0,0 UV-I 42 W/m 5,1 km/h (1 Bft)
13.02.2014 12:14 6,6 C 4,4 C 84 % 992,3 hPa 0,0 l/m 0 min 2 min 0,0 UV-I 40 W/m 2,6 km/h (1 Bft)
13.02.2014 12:16 6,5 C 4,4 C 84 % 992,3 hPa 0,0 l/m 0 min 2 min 0,0 UV-I 40 W/m 15,4 km/h (3 Bft)
13.02.2014 12:18 6,4 C 4,4 C 85 % 992,2 hPa 0,0 l/m 0 min 2 min 0,0 UV-I 40 W/m 7,7 km/h (2 Bft)
13.02.2014 12:20 6,3 C 4,4 C 86 % 992,2 hPa 0,0 l/m 0 min 2 min 0,0 UV-I 42 W/m 5,1 km/h (1 Bft)
13.02.2014 12:22 6,3 C 4,4 C 87 % 992,1 hPa 0,2 l/m 0 min 2 min 0,0 UV-I 40 W/m 5,1 km/h (1 Bft)
13.02.2014 12:24 6,2 C 4,4 C 87 % 992,1 hPa 0,0 l/m 0 min 2 min 0,0 UV-I 39 W/m 0,0 km/h (0 Bft)
13.02.2014 12:26 6,2 C 4,4 C 88 % 992,1 hPa 0,0 l/m 0 min 2 min 0,0 UV-I 42 W/m 0,0 km/h (0 Bft)
13.02.2014 12:28 6,2 C 4,4 C 88 % 992,1 hPa 0,2 l/m 0 min 2 min 0,0 UV-I 44 W/m 0,0 km/h (0 Bft)
13.02.2014 12:30 6,1 C 4,4 C 89 % 992,0 hPa 0,0 l/m 0 min 2 min 0,0 UV-I 44 W/m 0,0 km/h (0 Bft)
13.02.2014 12:32 6,1 C 4,4 C 89 % 991,9 hPa 0,0 l/m 0 min 2 min 0,0 UV-I 46 W/m 0,0 km/h (0 Bft)
13.02.2014 12:34 6,0 C 4,4 C 90 % 991,8 hPa 0,0 l/m 0 min 2 min 0,0 UV-I 46 W/m 0,0 km/h (0 Bft)
13.02.2014 12:36 6,0 C 4,4 C 90 % 991,8 hPa 0,0 l/m 0 min 2 min 0,0 UV-I 46 W/m 0,0 km/h (0 Bft)
13.02.2014 12:38 5,9 C 4,4 C 90 % 991,8 hPa 0,2 l/m 0 min 2 min 0,0 UV-I 53 W/m 0,0 km/h (0 Bft)
13.02.2014 12:40 5,9 C 4,4 C 90 % 991,7 hPa 0,0 l/m 0 min 2 min 0,0 UV-I 53 W/m 0,0 km/h (0 Bft)
13.02.2014 12:42 5,9 C 4,4 C 91 % 991,7 hPa 0,0 l/m 0 min 2 min 0,0 UV-I 51 W/m 0,0 km/h (0 Bft)
13.02.2014 12:44 5,9 C 4,4 C 91 % 991,7 hPa 0,0 l/m 0 min 2 min 0,0 UV-I 47 W/m 0,0 km/h (0 Bft)
13.02.2014 12:46 5,9 C 4,4 C 91 % 991,6 hPa 0,0 l/m 0 min 2 min 0,0 UV-I 47 W/m 0,0 km/h (0 Bft)
13.02.2014 12:48 5,9 C 4,4 C 92 % 991,6 hPa 0,2 l/m 0 min 2 min 0,0 UV-I 49 W/m 0,0 km/h (0 Bft)
13.02.2014 12:50 5,9 C 4,4 C 92 % 991,6 hPa 0,0 l/m 0 min 2 min 0,0 UV-I 49 W/m 0,0 km/h (0 Bft)
13.02.2014 12:52 5,9 C 4,4 C 92 % 991,5 hPa 0,0 l/m 0 min 2 min 0,0 UV-I 47 W/m 0,0 km/h (0 Bft)
13.02.2014 12:54 5,9 C 4,4 C 92 % 991,5 hPa 0,0 l/m 0 min 2 min 0,0 UV-I 46 W/m 0,0 km/h (0 Bft)
13.02.2014 12:56 5,9 C 4,4 C 92 % 991,4 hPa 0,0 l/m 0 min 2 min 0,0 UV-I 46 W/m 7,7 km/h (2 Bft)
13.02.2014 12:58 5,9 C 4,4 C 92 % 991,2 hPa 0,0 l/m 0 min 2 min 0,0 UV-I 44 W/m 0,0 km/h (0 Bft)
13.02.2014 13:00 5,8 C 4,4 C 92 % 991,2 hPa 0,0 l/m 0 min 2 min 0,0 UV-I 39 W/m 0,0 km/h (0 Bft)
13.02.2014 13:02 5,8 C 4,4 C 92 % 991,1 hPa 0,0 l/m 0 min 2 min 0,0 UV-I 42 W/m 0,0 km/h (0 Bft)
13.02.2014 13:04 5,8 C 4,4 C 92 % 991,2 hPa 0,2 l/m 0 min 2 min 0,0 UV-I 44 W/m 0,0 km/h (0 Bft)
13.02.2014 13:06 5,8 C 4,4 C 93 % 991,1 hPa 0,0 l/m 0 min 2 min 0,0 UV-I 42 W/m 0,0 km/h (0 Bft)
13.02.2014 13:08 5,8 C 4,4 C 93 % 991,1 hPa 0,0 l/m 0 min 2 min 0,0 UV-I 40 W/m 0,0 km/h (0 Bft)
13.02.2014 13:10 5,8 C 4,4 C 93 % 991,0 hPa 0,2 l/m 0 min 2 min 0,0 UV-I 44 W/m 5,1 km/h (1 Bft)
13.02.2014 13:12 5,7 C 4,4 C 93 % 991,1 hPa 0,0 l/m 0 min 2 min 0,0 UV-I 54 W/m 2,6 km/h (1 Bft)
13.02.2014 13:14 5,7 C 4,4 C 93 % 991,0 hPa 0,0 l/m 0 min 2 min 0,0 UV-I 58 W/m 15,4 km/h (3 Bft)
13.02.2014 13:16 5,7 C 4,4 C 93 % 991,1 hPa 0,0 l/m 0 min 2 min 0,0 UV-I 58 W/m 10,3 km/h (2 Bft)
13.02.2014 13:18 5,7 C 4,4 C 93 % 991,0 hPa 0,0 l/m 0 min 2 min 0,0 UV-I 58 W/m 10,3 km/h (2 Bft)
13.02.2014 13:20 5,7 C 4,4 C 93 % 991,0 hPa 0,2 l/m 0 min 2 min 0,0 UV-I 56 W/m 12,9 km/h (3 Bft)
13.02.2014 13:22 5,7 C 4,4 C 93 % 991,0 hPa 0,0 l/m 0 min 2 min 0,0 UV-I 54 W/m 10,3 km/h (2 Bft)
13.02.2014 13:24 5,6 C 4,4 C 93 % 991,0 hPa 0,0 l/m 0 min 2 min 0,0 UV-I 51 W/m 12,9 km/h (3 Bft)
13.02.2014 13:26 5,6 C 4,4 C 93 % 991,0 hPa 0,2 l/m 0 min 2 min 0,0 UV-I 53 W/m 0,0 km/h (0 Bft)
13.02.2014 13:28 5,6 C 4,4 C 93 % 991,0 hPa 0,0 l/m 0 min 2 min 0,0 UV-I 53 W/m 12,9 km/h (3 Bft)
13.02.2014 13:30 5,5 C 4,4 C 93 % 991,0 hPa 0,0 l/m 0 min 2 min 0,0 UV-I 51 W/m 10,3 km/h (2 Bft)
13.02.2014 13:32 5,5 C 4,4 C 94 % 991,1 hPa 0,0 l/m 0 min 2 min 0,0 UV-I 49 W/m 7,7 km/h (2 Bft)
13.02.2014 13:34 5,5 C 4,4 C 94 % 991,0 hPa 0,2 l/m 0 min 2 min 0,0 UV-I 49 W/m 5,1 km/h (1 Bft)
13.02.2014 13:36 5,4 C 4,4 C 94 % 991,0 hPa 0,0 l/m 0 min 2 min 0,0 UV-I 51 W/m 0,0 km/h (0 Bft)
13.02.2014 13:38 5,5 C 4,4 C 94 % 991,0 hPa 0,2 l/m 0 min 2 min 0,0 UV-I 53 W/m 5,1 km/h (1 Bft)
13.02.2014 13:40 5,4 C 4,4 C 94 % 991,0 hPa 0,0 l/m 0 min 2 min 0,0 UV-I 51 W/m 2,6 km/h (1 Bft)
13.02.2014 13:42 5,4 C 4,4 C 94 % 990,8 hPa 0,0 l/m 0 min 2 min 0,0 UV-I 51 W/m 5,1 km/h (1 Bft)
13.02.2014 13:44 5,4 C 4,4 C 94 % 990,8 hPa 0,0 l/m 0 min 2 min 0,0 UV-I 53 W/m 10,3 km/h (2 Bft)
13.02.2014 13:46 5,3 C 4,4 C 94 % 990,7 hPa 0,2 l/m 0 min 2 min 0,0 UV-I 54 W/m 10,3 km/h (2 Bft)
13.02.2014 13:48 5,3 C 4,4 C 94 % 990,7 hPa 0,0 l/m 0 min 2 min 0,0 UV-I 58 W/m 10,3 km/h (2 Bft)
13.02.2014 13:50 5,3 C 4,4 C 94 % 990,7 hPa 0,0 l/m 0 min 2 min 0,0 UV-I 53 W/m 5,1 km/h (1 Bft)
13.02.2014 13:52 5,3 C 4,4 C 94 % 990,7 hPa 0,2 l/m 0 min 2 min 0,0 UV-I 49 W/m 7,7 km/h (2 Bft)
13.02.2014 13:54 5,3 C 4,4 C 94 % 990,7 hPa 0,0 l/m 0 min 2 min 0,0 UV-I 40 W/m 7,7 km/h (2 Bft)
13.02.2014 13:56 5,3 C 3,9 C 94 % 990,8 hPa 0,0 l/m 0 min 2 min 0,0 UV-I 32 W/m 7,7 km/h (2 Bft)
13.02.2014 13:58 5,3 C 3,9 C 94 % 990,7 hPa 0,0 l/m 0 min 2 min 0,0 UV-I 28 W/m 2,6 km/h (1 Bft)
13.02.2014 14:00 5,3 C 3,9 C 94 % 990,8 hPa 0,0 l/m 0 min 2 min 0,0 UV-I 26 W/m 0,0 km/h (0 Bft)
13.02.2014 14:02 5,2 C 3,9 C 94 % 990,8 hPa 0,0 l/m 0 min 2 min 0,0 UV-I 26 W/m 0,0 km/h (0 Bft)
13.02.2014 14:04 5,2 C 3,9 C 94 % 990,8 hPa 0,2 l/m 0 min 2 min 0,0 UV-I 28 W/m 0,0 km/h (0 Bft)
13.02.2014 14:06 5,2 C 3,9 C 95 % 990,8 hPa 0,0 l/m 0 min 2 min 0,0 UV-I 32 W/m 0,0 km/h (0 Bft)
13.02.2014 14:08 5,2 C 3,9 C 94 % 990,7 hPa 0,0 l/m 0 min 2 min 0,0 UV-I 33 W/m 0,0 km/h (0 Bft)
13.02.2014 14:10 5,2 C 3,9 C 95 % 990,7 hPa 0,0 l/m 0 min 2 min 0,0 UV-I 33 W/m 0,0 km/h (0 Bft)
13.02.2014 14:12 5,2 C 3,9 C 95 % 990,6 hPa 0,2 l/m 0 min 2 min 0,0 UV-I 33 W/m 2,6 km/h (1 Bft)
13.02.2014 14:14 5,2 C 3,9 C 95 % 990,6 hPa 0,0 l/m 0 min 2 min 0,0 UV-I 35 W/m 5,1 km/h (1 Bft)
13.02.2014 14:16 5,2 C 3,9 C 95 % 990,6 hPa 0,0 l/m 0 min 2 min 0,0 UV-I 37 W/m 0,0 km/h (0 Bft)
13.02.2014 14:18 5,2 C 3,9 C 95 % 990,5 hPa 0,0 l/m 0 min 2 min 0,0 UV-I 40 W/m 0,0 km/h (0 Bft)
13.02.2014 14:20 5,2 C 3,9 C 95 % 990,5 hPa 0,0 l/m 0 min 2 min 0,0 UV-I 40 W/m 12,9 km/h (3 Bft)
13.02.2014 14:22 5,2 C 3,9 C 95 % 990,5 hPa 0,0 l/m 0 min 2 min 0,0 UV-I 39 W/m 5,1 km/h (1 Bft)
13.02.2014 14:24 5,2 C 3,9 C 95 % 990,5 hPa 0,0 l/m 0 min 2 min 0,0 UV-I 39 W/m 0,0 km/h (0 Bft)
13.02.2014 14:26 5,2 C 3,9 C 95 % 990,5 hPa 0,0 l/m 0 min 2 min 0,0 UV-I 37 W/m 10,3 km/h (2 Bft)
13.02.2014 14:28 5,2 C 3,9 C 95 % 990,5 hPa 0,0 l/m 0 min 2 min 0,0 UV-I 33 W/m 2,6 km/h (1 Bft)
13.02.2014 14:30 5,2 C 3,9 C 95 % 990,6 hPa 0,2 l/m 0 min 2 min 0,0 UV-I 33 W/m 2,6 km/h (1 Bft)
13.02.2014 14:32 5,2 C 3,9 C 95 % 990,6 hPa 0,0 l/m 0 min 2 min 0,0 UV-I 33 W/m 5,1 km/h (1 Bft)
13.02.2014 14:34 5,2 C 3,9 C 95 % 990,7 hPa 0,0 l/m 0 min 2 min 0,0 UV-I 33 W/m 5,1 km/h (1 Bft)
13.02.2014 14:36 5,2 C 3,9 C 95 % 990,7 hPa 0,0 l/m 0 min 2 min 0,0 UV-I 33 W/m 0,0 km/h (0 Bft)
13.02.2014 14:38 5,2 C 3,9 C 96 % 990,7 hPa 0,2 l/m 0 min 2 min 0,0 UV-I 30 W/m 0,0 km/h (0 Bft)
13.02.2014 14:40 5,1 C 3,9 C 96 % 990,7 hPa 0,0 l/m 0 min 2 min 0,0 UV-I 26 W/m 0,0 km/h (0 Bft)
13.02.2014 14:42 5,1 C 3,9 C 95 % 990,7 hPa 0,0 l/m 0 min 2 min 0,0 UV-I 26 W/m 10,3 km/h (2 Bft)
13.02.2014 14:44 5,1 C 3,9 C 95 % 990,7 hPa 0,0 l/m 0 min 2 min 0,0 UV-I 25 W/m 10,3 km/h (2 Bft)
13.02.2014 14:46 5,0 C 3,9 C 95 % 990,8 hPa 0,0 l/m 0 min 2 min 0,0 UV-I 25 W/m 5,1 km/h (1 Bft)
13.02.2014 14:48 5,0 C 3,9 C 96 % 990,9 hPa 0,0 l/m 0 min 2 min 0,0 UV-I 26 W/m 5,1 km/h (1 Bft)
13.02.2014 14:50 4,9 C 3,9 C 96 % 990,9 hPa 0,2 l/m 0 min 2 min 0,0 UV-I 28 W/m 7,7 km/h (2 Bft)
13.02.2014 14:52 4,9 C 3,9 C 96 % 990,9 hPa 0,0 l/m 0 min 2 min 0,0 UV-I 26 W/m 0,0 km/h (0 Bft)
13.02.2014 14:54 4,9 C 3,9 C 96 % 991,0 hPa 0,2 l/m 0 min 2 min 0,0 UV-I 25 W/m 0,0 km/h (0 Bft)
13.02.2014 14:56 4,9 C 3,9 C 96 % 991,0 hPa 0,0 l/m 0 min 2 min 0,0 UV-I 26 W/m 0,0 km/h (0 Bft)
13.02.2014 14:58 4,9 C 3,9 C 96 % 990,9 hPa 0,2 l/m 0 min 2 min 0,0 UV-I 30 W/m 12,9 km/h (3 Bft)
13.02.2014 15:00 4,9 C 3,9 C 96 % 990,9 hPa 0,2 l/m 0 min 2 min 0,0 UV-I 32 W/m 7,7 km/h (2 Bft)
13.02.2014 15:02 4,9 C 3,9 C 96 % 991,0 hPa 0,0 l/m 0 min 2 min 0,0 UV-I 32 W/m 0,0 km/h (0 Bft)
13.02.2014 15:04 4,8 C 3,9 C 96 % 991,0 hPa 0,0 l/m 0 min 2 min 0,0 UV-I 37 W/m 0,0 km/h (0 Bft)
13.02.2014 15:06 4,8 C 3,9 C 96 % 991,0 hPa 0,2 l/m 0 min 2 min 0,0 UV-I 40 W/m 0,0 km/h (0 Bft)
13.02.2014 15:08 4,8 C 3,9 C 96 % 991,0 hPa 0,0 l/m 0 min 2 min 0,0 UV-I 44 W/m 0,0 km/h (0 Bft)
13.02.2014 15:10 4,8 C 3,9 C 96 % 991,0 hPa 0,2 l/m 0 min 2 min 0,0 UV-I 46 W/m 0,0 km/h (0 Bft)
13.02.2014 15:12 4,8 C 3,9 C 96 % 991,0 hPa 0,0 l/m 0 min 2 min 0,0 UV-I 49 W/m 5,1 km/h (1 Bft)
13.02.2014 15:14 4,8 C 3,9 C 96 % 991,0 hPa 0,0 l/m 0 min 2 min 0,0 UV-I 54 W/m 2,6 km/h (1 Bft)
13.02.2014 15:16 4,8 C 3,9 C 96 % 991,0 hPa 0,0 l/m 0 min 2 min 0,0 UV-I 56 W/m 0,0 km/h (0 Bft)
13.02.2014 15:18 4,8 C 3,9 C 96 % 991,0 hPa 0,2 l/m 0 min 2 min 0,0 UV-I 53 W/m 0,0 km/h (0 Bft)
13.02.2014 15:20 4,8 C 3,9 C 96 % 991,0 hPa 0,0 l/m 0 min 2 min 0,0 UV-I 54 W/m 0,0 km/h (0 Bft)
13.02.2014 15:22 4,9 C 3,9 C 96 % 991,0 hPa 0,0 l/m 0 min 2 min 0,0 UV-I 58 W/m 0,0 km/h (0 Bft)
13.02.2014 15:24 4,8 C 3,9 C 96 % 991,0 hPa 0,0 l/m 0 min 2 min 0,0 UV-I 63 W/m 0,0 km/h (0 Bft)
13.02.2014 15:26 4,9 C 4,4 C 96 % 991,0 hPa 0,0 l/m 0 min 2 min 0,0 UV-I 69 W/m 0,0 km/h (0 Bft)
13.02.2014 15:28 5,0 C 4,4 C 96 % 991,0 hPa 0,0 l/m 0 min 2 min 0,0 UV-I 77 W/m 0,0 km/h (0 Bft)
13.02.2014 15:30 5,0 C 4,4 C 96 % 991,0 hPa 0,0 l/m 0 min 2 min 0,0 UV-I 83 W/m 0,0 km/h (0 Bft)
13.02.2014 15:32 5,0 C 4,4 C 96 % 991,1 hPa 0,0 l/m 0 min 2 min 0,0 UV-I 88 W/m 0,0 km/h (0 Bft)
13.02.2014 15:34 4,9 C 4,4 C 96 % 991,1 hPa 0,0 l/m 0 min 2 min 0,0 UV-I 90 W/m 0,0 km/h (0 Bft)
13.02.2014 15:36 5,0 C 4,4 C 96 % 991,1 hPa 0,0 l/m 0 min 2 min 0,0 UV-I 98 W/m 0,0 km/h (0 Bft)
13.02.2014 15:38 5,1 C 4,4 C 96 % 991,1 hPa 0,0 l/m 0 min 2 min 0,0 UV-I 100 W/m 0,0 km/h (0 Bft)
13.02.2014 15:40 5,1 C 4,4 C 96 % 991,0 hPa 0,2 l/m 0 min 2 min 0,0 UV-I 95 W/m 0,0 km/h (0 Bft)
13.02.2014 15:42 5,1 C 4,4 C 96 % 991,0 hPa 0,0 l/m 0 min 2 min 0,0 UV-I 90 W/m 0,0 km/h (0 Bft)
13.02.2014 15:44 5,2 C 4,4 C 96 % 991,1 hPa 0,0 l/m 0 min 2 min 0,0 UV-I 86 W/m 0,0 km/h (0 Bft)
13.02.2014 15:46 5,2 C 4,4 C 96 % 991,1 hPa 0,0 l/m 0 min 2 min 0,0 UV-I 76 W/m 0,0 km/h (0 Bft)
13.02.2014 15:48 5,2 C 4,4 C 96 % 991,2 hPa 0,0 l/m 0 min 2 min 0,0 UV-I 69 W/m 0,0 km/h (0 Bft)
13.02.2014 15:50 5,2 C 4,4 C 96 % 991,1 hPa 0,0 l/m 0 min 0 min 0,0 UV-I 67 W/m 0,0 km/h (0 Bft)
13.02.2014 15:52 5,2 C 4,4 C 96 % 991,1 hPa 0,0 l/m 0 min 2 min 0,0 UV-I 53 W/m 0,0 km/h (0 Bft)
13.02.2014 15:54 5,2 C 4,4 C 96 % 991,2 hPa 0,0 l/m 0 min 0 min 0,0 UV-I 49 W/m 0,0 km/h (0 Bft)
13.02.2014 15:56 5,2 C 4,4 C 96 % 991,2 hPa 0,0 l/m 0 min 0 min 0,0 UV-I 56 W/m 0,0 km/h (0 Bft)
13.02.2014 15:58 5,2 C 4,4 C 96 % 991,2 hPa 0,0 l/m 0 min 2 min 0,0 UV-I 54 W/m 0,0 km/h (0 Bft)
13.02.2014 16:00 5,2 C 4,4 C 96 % 991,3 hPa 0,0 l/m 0 min 2 min 0,0 UV-I 46 W/m 0,0 km/h (0 Bft)
13.02.2014 16:02 5,3 C 4,4 C 96 % 991,3 hPa 0,0 l/m 0 min 2 min 0,0 UV-I 39 W/m 0,0 km/h (0 Bft)
13.02.2014 16:04 5,3 C 4,4 C 96 % 991,4 hPa 0,0 l/m 0 min 2 min 0,0 UV-I 35 W/m 0,0 km/h (0 Bft)
13.02.2014 16:06 5,2 C 4,4 C 96 % 991,3 hPa 0,0 l/m 0 min 2 min 0,0 UV-I 30 W/m 0,0 km/h (0 Bft)
13.02.2014 16:08 5,3 C 4,4 C 96 % 991,3 hPa 0,0 l/m 0 min 2 min 0,0 UV-I 37 W/m 0,0 km/h (0 Bft)
13.02.2014 16:10 5,2 C 4,4 C 96 % 991,5 hPa 0,0 l/m 0 min 2 min 0,0 UV-I 40 W/m 0,0 km/h (0 Bft)
13.02.2014 16:12 5,3 C 4,4 C 96 % 991,4 hPa 0,0 l/m 0 min 2 min 0,0 UV-I 42 W/m 0,0 km/h (0 Bft)
13.02.2014 16:14 5,2 C 4,4 C 96 % 991,5 hPa 0,0 l/m 0 min 0 min 0,0 UV-I 35 W/m 0,0 km/h (0 Bft)
13.02.2014 16:16 5,2 C 4,4 C 96 % 991,5 hPa 0,0 l/m 0 min 0 min 0,0 UV-I 33 W/m 0,0 km/h (0 Bft)
13.02.2014 16:18 5,2 C 4,4 C 96 % 991,5 hPa 0,0 l/m 0 min 2 min 0,0 UV-I 30 W/m 0,0 km/h (0 Bft)
13.02.2014 16:20 5,2 C 4,4 C 96 % 991,5 hPa 0,0 l/m 0 min 2 min 0,0 UV-I 37 W/m 0,0 km/h (0 Bft)
13.02.2014 16:22 5,2 C 4,4 C 96 % 991,5 hPa 0,0 l/m 0 min 2 min 0,0 UV-I 39 W/m 0,0 km/h (0 Bft)
13.02.2014 16:24 5,2 C 4,4 C 96 % 991,5 hPa 0,0 l/m 0 min 2 min 0,0 UV-I 46 W/m 0,0 km/h (0 Bft)
13.02.2014 16:26 5,2 C 4,4 C 96 % 991,6 hPa 0,0 l/m 0 min 2 min 0,0 UV-I 42 W/m 0,0 km/h (0 Bft)
13.02.2014 16:28 5,2 C 3,9 C 96 % 991,5 hPa 0,0 l/m 0 min 2 min 0,0 UV-I 40 W/m 0,0 km/h (0 Bft)
13.02.2014 16:30 5,2 C 4,4 C 96 % 991,6 hPa 0,0 l/m 0 min 2 min 0,0 UV-I 35 W/m 0,0 km/h (0 Bft)
13.02.2014 16:32 5,2 C 4,4 C 96 % 991,6 hPa 0,0 l/m 0 min 2 min 0,0 UV-I 23 W/m 0,0 km/h (0 Bft)
13.02.2014 16:34 5,2 C 4,4 C 96 % 991,6 hPa 0,0 l/m 0 min 2 min 0,0 UV-I 19 W/m 0,0 km/h (0 Bft)
13.02.2014 16:36 5,2 C 3,9 C 96 % 991,6 hPa 0,0 l/m 0 min 2 min 0,0 UV-I 18 W/m 0,0 km/h (0 Bft)
13.02.2014 16:38 5,2 C 3,9 C 96 % 991,7 hPa 0,0 l/m 0 min 2 min 0,0 UV-I 28 W/m 0,0 km/h (0 Bft)
13.02.2014 16:40 5,2 C 3,9 C 96 % 991,7 hPa 0,0 l/m 0 min 0 min 0,0 UV-I 37 W/m 0,0 km/h (0 Bft)
13.02.2014 16:42 5,2 C 4,4 C 96 % 991,7 hPa 0,0 l/m 0 min 0 min 0,0 UV-I 49 W/m 0,0 km/h (0 Bft)
13.02.2014 16:44 5,2 C 4,4 C 96 % 991,7 hPa 0,0 l/m 0 min 0 min 0,0 UV-I 54 W/m 5,1 km/h (1 Bft)
13.02.2014 16:46 5,2 C 4,4 C 96 % 991,7 hPa 0,0 l/m 0 min 0 min 0,0 UV-I 51 W/m 0,0 km/h (0 Bft)
13.02.2014 16:48 5,2 C 4,4 C 96 % 991,7 hPa 0,0 l/m 0 min 0 min 0,0 UV-I 53 W/m 0,0 km/h (0 Bft)
13.02.2014 16:50 5,2 C 4,4 C 96 % 991,7 hPa 0,0 l/m 0 min 0 min 0,0 UV-I 47 W/m 0,0 km/h (0 Bft)
13.02.2014 16:52 5,2 C 4,4 C 97 % 991,8 hPa 0,0 l/m 0 min 0 min 0,0 UV-I 35 W/m 2,6 km/h (1 Bft)
13.02.2014 16:54 5,2 C 4,4 C 97 % 991,9 hPa 0,0 l/m 0 min 0 min 0,0 UV-I 21 W/m 0,0 km/h (0 Bft)
13.02.2014 16:56 5,2 C 3,9 C 97 % 991,9 hPa 0,0 l/m 0 min 0 min 0,0 UV-I 18 W/m 5,1 km/h (1 Bft)
13.02.2014 16:58 5,2 C 3,9 C 97 % 991,9 hPa 0,0 l/m 0 min 0 min 0,0 UV-I 19 W/m 0,0 km/h (0 Bft)
13.02.2014 17:00 5,1 C 3,9 C 97 % 991,8 hPa 0,0 l/m 0 min 0 min 0,0 UV-I 18 W/m 0,0 km/h (0 Bft)
13.02.2014 17:02 5,1 C 3,9 C 97 % 991,9 hPa 0,0 l/m 0 min 0 min 0,0 UV-I 16 W/m 0,0 km/h (0 Bft)
13.02.2014 17:04 5,1 C 3,9 C 97 % 992,0 hPa 0,0 l/m 0 min 0 min 0,0 UV-I 18 W/m 0,0 km/h (0 Bft)
13.02.2014 17:06 5,1 C 3,9 C 96 % 991,9 hPa 0,0 l/m 0 min 0 min 0,0 UV-I 12 W/m 0,0 km/h (0 Bft)
13.02.2014 17:08 5,1 C 3,9 C 97 % 992,0 hPa 0,0 l/m 0 min 0 min 0,0 UV-I 12 W/m 0,0 km/h (0 Bft)
13.02.2014 17:10 5,1 C 3,9 C 97 % 992,0 hPa 0,0 l/m 0 min 0 min 0,0 UV-I 9 W/m 0,0 km/h (0 Bft)
13.02.2014 17:12 5,1 C 3,9 C 97 % 992,1 hPa 0,0 l/m 0 min 0 min 0,0 UV-I 9 W/m 0,0 km/h (0 Bft)
13.02.2014 17:14 5,1 C 3,9 C 97 % 992,1 hPa 0,0 l/m 0 min 0 min 0,0 UV-I 7 W/m 0,0 km/h (0 Bft)
13.02.2014 17:16 5,1 C 3,9 C 97 % 992,1 hPa 0,0 l/m 0 min 0 min 0,0 UV-I 5 W/m 0,0 km/h (0 Bft)
13.02.2014 17:18 5,1 C 3,9 C 97 % 992,2 hPa 0,0 l/m 0 min 0 min 0,0 UV-I 7 W/m 0,0 km/h (0 Bft)
13.02.2014 17:20 5,0 C 3,9 C 97 % 992,3 hPa 0,0 l/m 0 min 0 min 0,0 UV-I 7 W/m 7,7 km/h (2 Bft)
13.02.2014 17:22 5,0 C 3,9 C 97 % 992,3 hPa 0,0 l/m 0 min 0 min 0,0 UV-I 7 W/m 0,0 km/h (0 Bft)
13.02.2014 17:24 5,0 C 3,9 C 97 % 992,4 hPa 0,0 l/m 0 min 0 min 0,0 UV-I 5 W/m 2,6 km/h (1 Bft)
13.02.2014 17:26 5,0 C 3,9 C 97 % 992,5 hPa 0,0 l/m 0 min 0 min 0,0 UV-I 5 W/m 0,0 km/h (0 Bft)
13.02.2014 17:28 4,9 C 3,9 C 97 % 992,5 hPa 0,0 l/m 0 min 0 min 0,0 UV-I 5 W/m 5,1 km/h (1 Bft)
13.02.2014 17:30 4,9 C 3,9 C 97 % 992,4 hPa 0,0 l/m 0 min 0 min 0,0 UV-I 5 W/m 5,1 km/h (1 Bft)
13.02.2014 17:32 4,9 C 3,9 C 97 % 992,4 hPa 0,0 l/m 0 min 0 min 0,0 UV-I 0 W/m 7,7 km/h (2 Bft)
13.02.2014 17:34 4,9 C 3,9 C 97 % 992,5 hPa 0,0 l/m 0 min 0 min 0,0 UV-I 0 W/m 0,0 km/h (0 Bft)
13.02.2014 17:36 4,9 C 3,9 C 97 % 992,5 hPa 0,0 l/m 0 min 0 min 0,0 UV-I 0 W/m 2,6 km/h (1 Bft)
13.02.2014 17:38 4,9 C 3,9 C 97 % 992,5 hPa 0,0 l/m 0 min 0 min 0,0 UV-I 0 W/m 2,6 km/h (1 Bft)
13.02.2014 17:40 4,9 C 3,9 C 97 % 992,6 hPa 0,0 l/m 0 min 0 min 0,0 UV-I 0 W/m 0,0 km/h (0 Bft)
13.02.2014 17:42 4,9 C 3,9 C 97 % 992,7 hPa 0,0 l/m 0 min 0 min 0,0 UV-I 0 W/m 2,6 km/h (1 Bft)
13.02.2014 17:44 4,9 C 3,9 C 97 % 992,8 hPa 0,0 l/m 0 min 0 min 0,0 UV-I 0 W/m 0,0 km/h (0 Bft)
13.02.2014 17:46 4,9 C 3,9 C 97 % 992,8 hPa 0,0 l/m 0 min 0 min 0,0 UV-I 0 W/m 0,0 km/h (0 Bft)
13.02.2014 17:48 4,9 C 3,9 C 97 % 992,9 hPa 0,0 l/m 0 min 0 min 0,0 UV-I 0 W/m 0,0 km/h (0 Bft)
13.02.2014 17:50 4,9 C 3,9 C 97 % 992,9 hPa 0,0 l/m 0 min 0 min 0,0 UV-I 0 W/m 5,1 km/h (1 Bft)
13.02.2014 17:52 4,9 C 3,9 C 97 % 992,9 hPa 0,0 l/m 0 min 0 min 0,0 UV-I 0 W/m 5,1 km/h (1 Bft)
13.02.2014 17:54 4,9 C 3,9 C 97 % 993,0 hPa 0,0 l/m 0 min 0 min 0,0 UV-I 0 W/m 0,0 km/h (0 Bft)
13.02.2014 17:56 4,9 C 3,9 C 97 % 993,0 hPa 0,0 l/m 0 min 0 min 0,0 UV-I 0 W/m 5,1 km/h (1 Bft)
13.02.2014 17:58 4,9 C 3,9 C 97 % 993,0 hPa 0,0 l/m 0 min 0 min 0,0 UV-I 0 W/m 7,7 km/h (2 Bft)
13.02.2014 18:00 4,9 C 3,9 C 97 % 993,1 hPa 0,0 l/m 0 min 0 min 0,0 UV-I 0 W/m 5,1 km/h (1 Bft)
13.02.2014 18:02 4,9 C 3,3 C 97 % 993,1 hPa 0,0 l/m 0 min 0 min 0,0 UV-I 0 W/m 7,7 km/h (2 Bft)
13.02.2014 18:04 4,8 C 3,3 C 97 % 993,2 hPa 0,0 l/m 0 min 0 min 0,0 UV-I 0 W/m 7,7 km/h (2 Bft)
13.02.2014 18:06 4,8 C 3,3 C 97 % 993,2 hPa 0,0 l/m 0 min 0 min 0,0 UV-I 0 W/m 2,6 km/h (1 Bft)
13.02.2014 18:08 4,8 C 3,3 C 97 % 993,2 hPa 0,0 l/m 0 min 0 min 0,0 UV-I 0 W/m 0,0 km/h (0 Bft)
13.02.2014 18:10 4,8 C 3,3 C 97 % 993,3 hPa 0,0 l/m 0 min 2 min 0,0 UV-I 0 W/m 10,3 km/h (2 Bft)
13.02.2014 18:12 4,7 C 3,3 C 97 % 993,3 hPa 0,0 l/m 0 min 2 min 0,0 UV-I 0 W/m 7,7 km/h (2 Bft)
13.02.2014 18:14 4,7 C 3,3 C 97 % 993,4 hPa 0,0 l/m 0 min 2 min 0,0 UV-I 0 W/m 0,0 km/h (0 Bft)
13.02.2014 18:16 4,6 C 3,3 C 96 % 993,5 hPa 0,0 l/m 0 min 0 min 0,0 UV-I 0 W/m 7,7 km/h (2 Bft)
13.02.2014 18:18 4,6 C 3,3 C 96 % 993,5 hPa 0,0 l/m 0 min 0 min 0,0 UV-I 0 W/m 0,0 km/h (0 Bft)
13.02.2014 18:20 4,6 C 3,3 C 96 % 993,6 hPa 0,0 l/m 0 min 0 min 0,0 UV-I 0 W/m 0,0 km/h (0 Bft)
13.02.2014 18:22 4,5 C 3,3 C 97 % 993,6 hPa 0,0 l/m 0 min 0 min 0,0 UV-I 0 W/m 0,0 km/h (0 Bft)
13.02.2014 18:24 4,5 C 3,3 C 97 % 993,7 hPa 0,0 l/m 0 min 0 min 0,0 UV-I 0 W/m 0,0 km/h (0 Bft)
13.02.2014 18:26 4,5 C 3,3 C 97 % 993,8 hPa 0,0 l/m 0 min 0 min 0,0 UV-I 0 W/m 0,0 km/h (0 Bft)
13.02.2014 18:28 4,4 C 3,3 C 97 % 993,8 hPa 0,0 l/m 0 min 0 min 0,0 UV-I 0 W/m 0,0 km/h (0 Bft)
13.02.2014 18:30 4,4 C 3,3 C 97 % 993,9 hPa 0,0 l/m 0 min 0 min 0,0 UV-I 0 W/m 2,6 km/h (1 Bft)
13.02.2014 18:32 4,4 C 3,3 C 97 % 994,0 hPa 0,0 l/m 0 min 0 min 0,0 UV-I 0 W/m 5,1 km/h (1 Bft)
13.02.2014 18:34 4,4 C 3,3 C 97 % 994,0 hPa 0,0 l/m 0 min 0 min 0,0 UV-I 0 W/m 0,0 km/h (0 Bft)
13.02.2014 18:36 4,4 C 3,3 C 97 % 994,1 hPa 0,0 l/m 0 min 0 min 0,0 UV-I 0 W/m 0,0 km/h (0 Bft)
13.02.2014 18:38 4,4 C 3,3 C 97 % 994,2 hPa 0,0 l/m 0 min 0 min 0,0 UV-I 0 W/m 0,0 km/h (0 Bft)
13.02.2014 18:40 4,4 C 3,3 C 97 % 994,3 hPa 0,0 l/m 0 min 0 min 0,0 UV-I 0 W/m 10,3 km/h (2 Bft)
13.02.2014 18:42 4,4 C 3,3 C 97 % 994,4 hPa 0,0 l/m 0 min 0 min 0,0 UV-I 0 W/m 0,0 km/h (0 Bft)
13.02.2014 18:44 4,4 C 3,3 C 97 % 994,4 hPa 0,0 l/m 0 min 0 min 0,0 UV-I 0 W/m 0,0 km/h (0 Bft)
13.02.2014 18:46 4,3 C 3,3 C 97 % 994,4 hPa 0,0 l/m 0 min 0 min 0,0 UV-I 0 W/m 2,6 km/h (1 Bft)
13.02.2014 18:48 4,3 C 3,3 C 96 % 994,4 hPa 0,0 l/m 0 min 0 min 0,0 UV-I 0 W/m 2,6 km/h (1 Bft)
13.02.2014 18:50 4,3 C 3,3 C 96 % 994,5 hPa 0,0 l/m 0 min 0 min 0,0 UV-I 0 W/m 10,3 km/h (2 Bft)
13.02.2014 18:52 4,3 C 3,3 C 97 % 994,5 hPa 0,0 l/m 0 min 0 min 0,0 UV-I 0 W/m 5,1 km/h (1 Bft)
13.02.2014 18:54 4,3 C 3,3 C 97 % 994,6 hPa 0,0 l/m 0 min 0 min 0,0 UV-I 0 W/m 7,7 km/h (2 Bft)
13.02.2014 18:56 4,3 C 3,3 C 97 % 994,6 hPa 0,0 l/m 0 min 0 min 0,0 UV-I 0 W/m 12,9 km/h (3 Bft)
13.02.2014 18:58 4,3 C 3,3 C 97 % 994,6 hPa 0,0 l/m 0 min 0 min 0,0 UV-I 0 W/m 2,6 km/h (1 Bft)
13.02.2014 19:00 4,3 C 3,3 C 97 % 994,8 hPa 0,0 l/m 0 min 0 min 0,0 UV-I 0 W/m 7,7 km/h (2 Bft)
13.02.2014 19:02 4,3 C 3,3 C 97 % 994,8 hPa 0,0 l/m 0 min 0 min 0,0 UV-I 0 W/m 7,7 km/h (2 Bft)
13.02.2014 19:04 4,3 C 3,3 C 97 % 994,9 hPa 0,0 l/m 0 min 0 min 0,0 UV-I 0 W/m 2,6 km/h (1 Bft)
13.02.2014 19:06 4,3 C 3,3 C 97 % 994,9 hPa 0,0 l/m 0 min 0 min 0,0 UV-I 0 W/m 0,0 km/h (0 Bft)
13.02.2014 19:08 4,3 C 3,3 C 97 % 994,9 hPa 0,0 l/m 0 min 0 min 0,0 UV-I 0 W/m 5,1 km/h (1 Bft)
13.02.2014 19:10 4,3 C 3,3 C 97 % 995,0 hPa 0,0 l/m 0 min 0 min 0,0 UV-I 0 W/m 7,7 km/h (2 Bft)
13.02.2014 19:12 4,3 C 3,3 C 97 % 995,1 hPa 0,0 l/m 0 min 0 min 0,0 UV-I 0 W/m 7,7 km/h (2 Bft)
13.02.2014 19:14 4,3 C 3,3 C 97 % 995,1 hPa 0,0 l/m 0 min 0 min 0,0 UV-I 0 W/m 7,7 km/h (2 Bft)
13.02.2014 19:16 4,3 C 3,3 C 97 % 995,1 hPa 0,0 l/m 0 min 0 min 0,0 UV-I 0 W/m 10,3 km/h (2 Bft)
13.02.2014 19:18 4,3 C 3,3 C 97 % 995,2 hPa 0,0 l/m 0 min 0 min 0,0 UV-I 0 W/m 5,1 km/h (1 Bft)
13.02.2014 19:20 4,3 C 3,3 C 97 % 995,2 hPa 0,0 l/m 0 min 0 min 0,0 UV-I 0 W/m 0,0 km/h (0 Bft)
13.02.2014 19:22 4,3 C 3,3 C 97 % 995,2 hPa 0,0 l/m 0 min 0 min 0,0 UV-I 0 W/m 0,0 km/h (0 Bft)
13.02.2014 19:24 4,3 C 2,8 C 97 % 995,2 hPa 0,0 l/m 0 min 0 min 0,0 UV-I 0 W/m 7,7 km/h (2 Bft)
13.02.2014 19:26 4,2 C 2,8 C 97 % 995,3 hPa 0,0 l/m 0 min 0 min 0,0 UV-I 0 W/m 0,0 km/h (0 Bft)
13.02.2014 19:28 4,2 C 2,8 C 97 % 995,5 hPa 0,0 l/m 0 min 0 min 0,0 UV-I 0 W/m 5,1 km/h (1 Bft)
13.02.2014 19:30 4,2 C 2,8 C 97 % 995,5 hPa 0,0 l/m 0 min 0 min 0,0 UV-I 0 W/m 10,3 km/h (2 Bft)
13.02.2014 19:32 4,2 C 2,8 C 97 % 995,6 hPa 0,0 l/m 0 min 0 min 0,0 UV-I 0 W/m 2,6 km/h (1 Bft)
13.02.2014 19:34 4,2 C 2,8 C 97 % 995,6 hPa 0,0 l/m 0 min 0 min 0,0 UV-I 0 W/m 5,1 km/h (1 Bft)
13.02.2014 19:36 4,2 C 2,8 C 97 % 995,7 hPa 0,0 l/m 0 min 0 min 0,0 UV-I 0 W/m 2,6 km/h (1 Bft)
13.02.2014 19:38 4,3 C 2,8 C 97 % 995,8 hPa 0,0 l/m 0 min 0 min 0,0 UV-I 0 W/m 0,0 km/h (0 Bft)
13.02.2014 19:40 4,3 C 3,3 C 97 % 995,8 hPa 0,0 l/m 0 min 0 min 0,0 UV-I 0 W/m 0,0 km/h (0 Bft)
13.02.2014 19:42 4,3 C 3,3 C 97 % 995,8 hPa 0,0 l/m 0 min 0 min 0,0 UV-I 0 W/m 5,1 km/h (1 Bft)
13.02.2014 19:44 4,3 C 3,3 C 97 % 996,0 hPa 0,0 l/m 0 min 0 min 0,0 UV-I 0 W/m 10,3 km/h (2 Bft)
13.02.2014 19:46 4,3 C 3,3 C 97 % 996,0 hPa 0,0 l/m 0 min 0 min 0,0 UV-I 0 W/m 7,7 km/h (2 Bft)
13.02.2014 19:48 4,3 C 3,3 C 97 % 996,0 hPa 0,0 l/m 0 min 0 min 0,0 UV-I 0 W/m 10,3 km/h (2 Bft)
13.02.2014 19:50 4,3 C 3,3 C 97 % 996,1 hPa 0,0 l/m 0 min 0 min 0,0 UV-I 0 W/m 7,7 km/h (2 Bft)
13.02.2014 19:52 4,3 C 3,3 C 97 % 996,2 hPa 0,0 l/m 0 min 0 min 0,0 UV-I 0 W/m 2,6 km/h (1 Bft)
13.02.2014 19:54 4,4 C 3,3 C 97 % 996,3 hPa 0,0 l/m 0 min 0 min 0,0 UV-I 0 W/m 0,0 km/h (0 Bft)
13.02.2014 19:56 4,4 C 3,3 C 97 % 996,3 hPa 0,0 l/m 0 min 0 min 0,0 UV-I 0 W/m 10,3 km/h (2 Bft)
13.02.2014 19:58 4,4 C 3,3 C 97 % 996,4 hPa 0,0 l/m 0 min 0 min 0,0 UV-I 0 W/m 18,0 km/h (3 Bft)
13.02.2014 20:00 4,4 C 2,8 C 97 % 996,4 hPa 0,0 l/m 0 min 0 min 0,0 UV-I 0 W/m 5,1 km/h (1 Bft)
13.02.2014 20:02 4,4 C 2,8 C 97 % 996,5 hPa 0,0 l/m 0 min 0 min 0,0 UV-I 0 W/m 5,1 km/h (1 Bft)
13.02.2014 20:04 4,4 C 2,8 C 97 % 996,5 hPa 0,0 l/m 0 min 0 min 0,0 UV-I 0 W/m 5,1 km/h (1 Bft)
13.02.2014 20:06 4,4 C 2,8 C 97 % 996,6 hPa 0,0 l/m 0 min 0 min 0,0 UV-I 0 W/m 15,4 km/h (3 Bft)
13.02.2014 20:08 4,4 C 2,8 C 97 % 996,6 hPa 0,0 l/m 0 min 0 min 0,0 UV-I 0 W/m 7,7 km/h (2 Bft)
13.02.2014 20:10 4,4 C 3,3 C 97 % 996,7 hPa 0,0 l/m 0 min 0 min 0,0 UV-I 0 W/m 10,3 km/h (2 Bft)
13.02.2014 20:12 4,4 C 3,3 C 96 % 996,7 hPa 0,0 l/m 0 min 0 min 0,0 UV-I 0 W/m 18,0 km/h (3 Bft)
13.02.2014 20:14 4,4 C 3,3 C 96 % 996,9 hPa 0,0 l/m 0 min 0 min 0,0 UV-I 0 W/m 10,3 km/h (2 Bft)
13.02.2014 20:16 4,5 C 3,3 C 96 % 996,9 hPa 0,0 l/m 0 min 0 min 0,0 UV-I 0 W/m 12,9 km/h (3 Bft)
13.02.2014 20:18 4,5 C 3,3 C 96 % 996,9 hPa 0,0 l/m 0 min 0 min 0,0 UV-I 0 W/m 15,4 km/h (3 Bft)
13.02.2014 20:20 4,5 C 3,3 C 96 % 996,9 hPa 0,0 l/m 0 min 0 min 0,0 UV-I 0 W/m 12,9 km/h (3 Bft)
13.02.2014 20:22 4,5 C 3,3 C 96 % 996,9 hPa 0,0 l/m 0 min 0 min 0,0 UV-I 0 W/m 12,9 km/h (3 Bft)
13.02.2014 20:24 4,5 C 3,3 C 96 % 997,0 hPa 0,0 l/m 0 min 0 min 0,0 UV-I 0 W/m 15,4 km/h (3 Bft)
13.02.2014 20:26 4,6 C 3,3 C 96 % 997,1 hPa 0,0 l/m 0 min 0 min 0,0 UV-I 0 W/m 10,3 km/h (2 Bft)
13.02.2014 20:28 4,5 C 3,3 C 96 % 997,1 hPa 0,0 l/m 0 min 0 min 0,0 UV-I 0 W/m 7,7 km/h (2 Bft)
13.02.2014 20:30 4,5 C 3,3 C 96 % 997,2 hPa 0,0 l/m 0 min 0 min 0,0 UV-I 0 W/m 5,1 km/h (1 Bft)
13.02.2014 20:32 4,5 C 3,3 C 96 % 997,1 hPa 0,0 l/m 0 min 0 min 0,0 UV-I 0 W/m 12,9 km/h (3 Bft)
13.02.2014 20:34 4,5 C 3,3 C 96 % 997,1 hPa 0,0 l/m 0 min 0 min 0,0 UV-I 0 W/m 12,9 km/h (3 Bft)
13.02.2014 20:36 4,5 C 3,3 C 96 % 997,2 hPa 0,0 l/m 0 min 0 min 0,0 UV-I 0 W/m 10,3 km/h (2 Bft)
13.02.2014 20:38 4,5 C 3,3 C 96 % 997,2 hPa 0,0 l/m 0 min 0 min 0,0 UV-I 0 W/m 10,3 km/h (2 Bft)
13.02.2014 20:40 4,6 C 3,3 C 96 % 997,2 hPa 0,0 l/m 0 min 0 min 0,0 UV-I 0 W/m 10,3 km/h (2 Bft)
13.02.2014 20:42 4,6 C 3,3 C 96 % 997,3 hPa 0,0 l/m 0 min 0 min 0,0 UV-I 0 W/m 5,1 km/h (1 Bft)
13.02.2014 20:44 4,6 C 3,3 C 96 % 997,3 hPa 0,0 l/m 0 min 0 min 0,0 UV-I 0 W/m 10,3 km/h (2 Bft)
13.02.2014 20:46 4,6 C 3,3 C 96 % 997,3 hPa 0,0 l/m 0 min 0 min 0,0 UV-I 0 W/m 0,0 km/h (0 Bft)
13.02.2014 20:48 4,6 C 3,3 C 96 % 997,3 hPa 0,0 l/m 0 min 0 min 0,0 UV-I 0 W/m 5,1 km/h (1 Bft)
13.02.2014 20:50 4,6 C 3,3 C 96 % 997,4 hPa 0,0 l/m 0 min 0 min 0,0 UV-I 0 W/m 23,2 km/h (4 Bft)
13.02.2014 20:52 4,6 C 3,3 C 96 % 997,4 hPa 0,0 l/m 0 min 0 min 0,0 UV-I 0 W/m 10,3 km/h (2 Bft)
13.02.2014 20:54 4,6 C 3,3 C 96 % 997,4 hPa 0,0 l/m 0 min 0 min 0,0 UV-I 0 W/m 5,1 km/h (1 Bft)
13.02.2014 20:56 4,6 C 3,3 C 96 % 997,4 hPa 0,0 l/m 0 min 0 min 0,0 UV-I 0 W/m 15,4 km/h (3 Bft)
13.02.2014 20:58 4,6 C 3,3 C 96 % 997,5 hPa 0,0 l/m 0 min 0 min 0,0 UV-I 0 W/m 15,4 km/h (3 Bft)
13.02.2014 21:00 4,6 C 3,3 C 96 % 997,6 hPa 0,0 l/m 0 min 0 min 0,0 UV-I 0 W/m 12,9 km/h (3 Bft)
13.02.2014 21:02 4,6 C 2,8 C 95 % 997,6 hPa 0,0 l/m 0 min 0 min 0,0 UV-I 0 W/m 10,3 km/h (2 Bft)
13.02.2014 21:04 4,6 C 2,8 C 95 % 997,7 hPa 0,0 l/m 0 min 0 min 0,0 UV-I 0 W/m 10,3 km/h (2 Bft)
13.02.2014 21:06 4,5 C 2,8 C 95 % 997,7 hPa 0,0 l/m 0 min 0 min 0,0 UV-I 0 W/m 7,7 km/h (2 Bft)
13.02.2014 21:08 4,6 C 3,3 C 95 % 997,8 hPa 0,0 l/m 0 min 0 min 0,0 UV-I 0 W/m 5,1 km/h (1 Bft)
13.02.2014 21:10 4,5 C 3,3 C 95 % 997,8 hPa 0,0 l/m 0 min 0 min 0,0 UV-I 0 W/m 2,6 km/h (1 Bft)
13.02.2014 21:12 4,6 C 3,3 C 95 % 997,9 hPa 0,0 l/m 0 min 0 min 0,0 UV-I 0 W/m 15,4 km/h (3 Bft)
13.02.2014 21:14 4,6 C 3,3 C 95 % 998,0 hPa 0,0 l/m 0 min 2 min 0,0 UV-I 0 W/m 12,9 km/h (3 Bft)
13.02.2014 21:16 4,6 C 2,8 C 95 % 998,0 hPa 0,2 l/m 0 min 2 min 0,0 UV-I 0 W/m 10,3 km/h (2 Bft)
13.02.2014 21:18 4,6 C 2,8 C 95 % 998,0 hPa 0,2 l/m 0 min 2 min 0,0 UV-I 0 W/m 18,0 km/h (3 Bft)
13.02.2014 21:20 4,5 C 2,8 C 95 % 998,2 hPa 0,0 l/m 0 min 2 min 0,0 UV-I 0 W/m 15,4 km/h (3 Bft)
13.02.2014 21:22 4,4 C 2,8 C 95 % 998,1 hPa 0,2 l/m 0 min 2 min 0,0 UV-I 0 W/m 10,3 km/h (2 Bft)
13.02.2014 21:24 4,4 C 2,8 C 95 % 998,2 hPa 0,0 l/m 0 min 2 min 0,0 UV-I 0 W/m 7,7 km/h (2 Bft)
13.02.2014 21:26 4,3 C 2,8 C 94 % 998,2 hPa 0,0 l/m 0 min 0 min 0,0 UV-I 0 W/m 2,6 km/h (1 Bft)
13.02.2014 21:28 4,3 C 2,8 C 95 % 998,3 hPa 0,0 l/m 0 min 0 min 0,0 UV-I 0 W/m 0,0 km/h (0 Bft)
13.02.2014 21:30 4,3 C 2,8 C 95 % 998,4 hPa 0,0 l/m 0 min 0 min 0,0 UV-I 0 W/m 0,0 km/h (0 Bft)
13.02.2014 21:32 4,3 C 2,8 C 95 % 998,6 hPa 0,0 l/m 0 min 0 min 0,0 UV-I 0 W/m 2,6 km/h (1 Bft)
13.02.2014 21:34 4,3 C 2,8 C 95 % 998,5 hPa 0,0 l/m 0 min 0 min 0,0 UV-I 0 W/m 7,7 km/h (2 Bft)
13.02.2014 21:36 4,3 C 2,8 C 95 % 998,5 hPa 0,0 l/m 0 min 0 min 0,0 UV-I 0 W/m 15,4 km/h (3 Bft)
13.02.2014 21:38 4,3 C 2,8 C 95 % 998,5 hPa 0,0 l/m 0 min 0 min 0,0 UV-I 0 W/m 10,3 km/h (2 Bft)
13.02.2014 21:40 4,4 C 2,8 C 95 % 998,6 hPa 0,0 l/m 0 min 2 min 0,0 UV-I 0 W/m 25,7 km/h (4 Bft)
13.02.2014 21:42 4,4 C 2,8 C 95 % 998,7 hPa 0,0 l/m 0 min 2 min 0,0 UV-I 0 W/m 15,4 km/h (3 Bft)
13.02.2014 21:44 4,4 C 2,8 C 95 % 999,0 hPa 0,2 l/m 0 min 2 min 0,0 UV-I 0 W/m 15,4 km/h (3 Bft)
13.02.2014 21:46 4,4 C 2,2 C 95 % 999,3 hPa 0,0 l/m 0 min 2 min 0,0 UV-I 0 W/m 15,4 km/h (3 Bft)
13.02.2014 21:48 4,2 C 1,7 C 95 % 999,4 hPa 0,2 l/m 0 min 2 min 0,0 UV-I 0 W/m 15,4 km/h (3 Bft)
13.02.2014 21:50 3,9 C 1,7 C 95 % 999,4 hPa 0,0 l/m 0 min 2 min 0,0 UV-I 0 W/m 28,3 km/h (4 Bft)
13.02.2014 21:52 3,7 C 1,7 C 94 % 999,4 hPa 0,2 l/m 0 min 2 min 0,0 UV-I 0 W/m 30,9 km/h (5 Bft)
13.02.2014 21:54 3,5 C 1,7 C 94 % 999,5 hPa 0,0 l/m 0 min 2 min 0,0 UV-I 0 W/m 18,0 km/h (3 Bft)
13.02.2014 21:56 3,4 C 1,7 C 94 % 999,3 hPa 0,0 l/m 0 min 2 min 0,0 UV-I 0 W/m 23,2 km/h (4 Bft)
13.02.2014 21:58 3,3 C 1,7 C 94 % 999,2 hPa 0,0 l/m 0 min 2 min 0,0 UV-I 0 W/m 28,3 km/h (4 Bft)
13.02.2014 22:00 3,2 C 1,7 C 94 % 999,3 hPa 0,0 l/m 0 min 2 min 0,0 UV-I 0 W/m 12,9 km/h (3 Bft)
13.02.2014 22:02 3,1 C 1,7 C 94 % 999,3 hPa 0,0 l/m 0 min 0 min 0,0 UV-I 0 W/m 12,9 km/h (3 Bft)
13.02.2014 22:04 3,1 C 1,7 C 94 % 999,3 hPa 0,2 l/m 0 min 0 min 0,0 UV-I 0 W/m 15,4 km/h (3 Bft)
13.02.2014 22:06 3,0 C 1,1 C 94 % 999,3 hPa 0,0 l/m 0 min 0 min 0,0 UV-I 0 W/m 10,3 km/h (2 Bft)
13.02.2014 22:08 3,0 C 1,1 C 94 % 999,3 hPa 0,0 l/m 0 min 0 min 0,0 UV-I 0 W/m 7,7 km/h (2 Bft)
13.02.2014 22:10 2,9 C 1,1 C 94 % 999,3 hPa 0,0 l/m 0 min 0 min 0,0 UV-I 0 W/m 7,7 km/h (2 Bft)
13.02.2014 22:12 2,9 C 1,1 C 94 % 999,4 hPa 0,0 l/m 0 min 0 min 0,0 UV-I 0 W/m 7,7 km/h (2 Bft)
13.02.2014 22:14 2,9 C 1,1 C 94 % 999,3 hPa 0,0 l/m 0 min 0 min 0,0 UV-I 0 W/m 5,1 km/h (1 Bft)
13.02.2014 22:16 2,9 C 1,1 C 94 % 999,3 hPa 0,0 l/m 0 min 0 min 0,0 UV-I 0 W/m 2,6 km/h (1 Bft)
13.02.2014 22:18 2,9 C 1,1 C 94 % 999,3 hPa 0,0 l/m 0 min 0 min 0,0 UV-I 0 W/m 10,3 km/h (2 Bft)
13.02.2014 22:20 2,9 C 1,1 C 94 % 999,4 hPa 0,0 l/m 0 min 0 min 0,0 UV-I 0 W/m 7,7 km/h (2 Bft)
13.02.2014 22:22 2,9 C 1,1 C 94 % 999,4 hPa 0,0 l/m 0 min 0 min 0,0 UV-I 0 W/m 0,0 km/h (0 Bft)
13.02.2014 22:24 2,9 C 1,1 C 94 % 999,4 hPa 0,0 l/m 0 min 0 min 0,0 UV-I 0 W/m 2,6 km/h (1 Bft)
13.02.2014 22:26 2,9 C 1,1 C 94 % 999,5 hPa 0,0 l/m 0 min 0 min 0,0 UV-I 0 W/m 0,0 km/h (0 Bft)
13.02.2014 22:28 2,8 C 1,1 C 94 % 999,5 hPa 0,0 l/m 0 min 0 min 0,0 UV-I 0 W/m 5,1 km/h (1 Bft)
13.02.2014 22:30 2,8 C 1,1 C 94 % 999,6 hPa 0,0 l/m 0 min 0 min 0,0 UV-I 0 W/m 5,1 km/h (1 Bft)
13.02.2014 22:32 2,8 C 1,1 C 94 % 999,6 hPa 0,0 l/m 0 min 0 min 0,0 UV-I 0 W/m 0,0 km/h (0 Bft)
13.02.2014 22:34 2,8 C 1,1 C 94 % 999,6 hPa 0,0 l/m 0 min 0 min 0,0 UV-I 0 W/m 2,6 km/h (1 Bft)
13.02.2014 22:36 2,8 C 1,1 C 94 % 999,6 hPa 0,0 l/m 0 min 0 min 0,0 UV-I 0 W/m 0,0 km/h (0 Bft)
13.02.2014 22:38 2,7 C 1,1 C 94 % 999,6 hPa 0,0 l/m 0 min 0 min 0,0 UV-I 0 W/m 7,7 km/h (2 Bft)
13.02.2014 22:40 2,7 C 1,1 C 94 % 999,6 hPa 0,0 l/m 0 min 0 min 0,0 UV-I 0 W/m 2,6 km/h (1 Bft)
13.02.2014 22:42 2,7 C 1,1 C 94 % 999,7 hPa 0,0 l/m 0 min 0 min 0,0 UV-I 0 W/m 7,7 km/h (2 Bft)
13.02.2014 22:44 2,7 C 1,1 C 94 % 999,7 hPa 0,0 l/m 0 min 0 min 0,0 UV-I 0 W/m 2,6 km/h (1 Bft)
13.02.2014 22:46 2,7 C 1,1 C 94 % 999,8 hPa 0,0 l/m 0 min 0 min 0,0 UV-I 0 W/m 2,6 km/h (1 Bft)
13.02.2014 22:48 2,7 C 1,1 C 94 % 999,8 hPa 0,0 l/m 0 min 0 min 0,0 UV-I 0 W/m 12,9 km/h (3 Bft)
13.02.2014 22:50 2,8 C 1,1 C 94 % 999,8 hPa 0,0 l/m 0 min 0 min 0,0 UV-I 0 W/m 10,3 km/h (2 Bft)
13.02.2014 22:52 2,8 C 1,1 C 94 % 999,8 hPa 0,0 l/m 0 min 0 min 0,0 UV-I 0 W/m 10,3 km/h (2 Bft)
13.02.2014 22:54 2,9 C 1,1 C 94 % 999,9 hPa 0,0 l/m 0 min 0 min 0,0 UV-I 0 W/m 12,9 km/h (3 Bft)
13.02.2014 22:56 2,9 C 1,1 C 94 % 999,9 hPa 0,0 l/m 0 min 0 min 0,0 UV-I 0 W/m 10,3 km/h (2 Bft)
13.02.2014 22:58 3,0 C 1,1 C 94 % 999,9 hPa 0,0 l/m 0 min 0 min 0,0 UV-I 0 W/m 0,0 km/h (0 Bft)
13.02.2014 23:00 3,0 C 1,1 C 94 % 1000,0 hPa 0,0 l/m 0 min 0 min 0,0 UV-I 0 W/m 5,1 km/h (1 Bft)
13.02.2014 23:02 3,0 C 1,1 C 94 % 1000,0 hPa 0,0 l/m 0 min 0 min 0,0 UV-I 0 W/m 7,7 km/h (2 Bft)
13.02.2014 23:04 3,1 C 1,1 C 94 % 1000,0 hPa 0,0 l/m 0 min 0 min 0,0 UV-I 0 W/m 5,1 km/h (1 Bft)
13.02.2014 23:06 3,1 C 1,1 C 94 % 1000,1 hPa 0,0 l/m 0 min 0 min 0,0 UV-I 0 W/m 7,7 km/h (2 Bft)
13.02.2014 23:08 3,1 C 1,1 C 94 % 1000,2 hPa 0,0 l/m 0 min 0 min 0,0 UV-I 0 W/m 18,0 km/h (3 Bft)
13.02.2014 23:10 3,2 C 1,7 C 94 % 1000,2 hPa 0,0 l/m 0 min 0 min 0,0 UV-I 0 W/m 18,0 km/h (3 Bft)
13.02.2014 23:12 3,2 C 1,7 C 94 % 1000,2 hPa 0,0 l/m 0 min 0 min 0,0 UV-I 0 W/m 0,0 km/h (0 Bft)
13.02.2014 23:14 3,2 C 1,7 C 94 % 1000,2 hPa 0,0 l/m 0 min 0 min 0,0 UV-I 0 W/m 15,4 km/h (3 Bft)
13.02.2014 23:16 3,3 C 1,7 C 94 % 1000,3 hPa 0,0 l/m 0 min 0 min 0,0 UV-I 0 W/m 10,3 km/h (2 Bft)
13.02.2014 23:18 3,3 C 1,7 C 94 % 1000,5 hPa 0,0 l/m 0 min 0 min 0,0 UV-I 0 W/m 12,9 km/h (3 Bft)
13.02.2014 23:20 3,3 C 1,7 C 94 % 1000,6 hPa 0,0 l/m 0 min 0 min 0,0 UV-I 0 W/m 12,9 km/h (3 Bft)
13.02.2014 23:22 3,3 C 1,7 C 94 % 1000,5 hPa 0,0 l/m 0 min 0 min 0,0 UV-I 0 W/m 12,9 km/h (3 Bft)
13.02.2014 23:24 3,4 C 1,7 C 94 % 1000,6 hPa 0,0 l/m 0 min 0 min 0,0 UV-I 0 W/m 10,3 km/h (2 Bft)
13.02.2014 23:26 3,4 C 1,7 C 94 % 1000,6 hPa 0,0 l/m 0 min 0 min 0,0 UV-I 0 W/m 10,3 km/h (2 Bft)
13.02.2014 23:28 3,5 C 1,7 C 94 % 1000,6 hPa 0,0 l/m 0 min 0 min 0,0 UV-I 0 W/m 12,9 km/h (3 Bft)
13.02.2014 23:30 3,5 C 1,7 C 93 % 1000,7 hPa 0,0 l/m 0 min 0 min 0,0 UV-I 0 W/m 10,3 km/h (2 Bft)
13.02.2014 23:32 3,5 C 1,7 C 93 % 1000,7 hPa 0,0 l/m 0 min 0 min 0,0 UV-I 0 W/m 10,3 km/h (2 Bft)
13.02.2014 23:34 3,6 C 1,7 C 93 % 1000,8 hPa 0,0 l/m 0 min 0 min 0,0 UV-I 0 W/m 12,9 km/h (3 Bft)
13.02.2014 23:36 3,6 C 1,7 C 93 % 1000,9 hPa 0,0 l/m 0 min 0 min 0,0 UV-I 0 W/m 15,4 km/h (3 Bft)
13.02.2014 23:38 3,6 C 1,7 C 93 % 1000,9 hPa 0,0 l/m 0 min 0 min 0,0 UV-I 0 W/m 2,6 km/h (1 Bft)
13.02.2014 23:40 3,6 C 1,7 C 93 % 1001,0 hPa 0,0 l/m 0 min 0 min 0,0 UV-I 0 W/m 7,7 km/h (2 Bft)
13.02.2014 23:42 3,6 C 1,7 C 93 % 1001,0 hPa 0,0 l/m 0 min 0 min 0,0 UV-I 0 W/m 12,9 km/h (3 Bft)
13.02.2014 23:44 3,6 C 1,7 C 92 % 1001,0 hPa 0,0 l/m 0 min 0 min 0,0 UV-I 0 W/m 2,6 km/h (1 Bft)
13.02.2014 23:46 3,6 C 1,7 C 92 % 1001,0 hPa 0,0 l/m 0 min 0 min 0,0 UV-I 0 W/m 18,0 km/h (3 Bft)
13.02.2014 23:48 3,6 C 1,7 C 92 % 1001,0 hPa 0,0 l/m 0 min 0 min 0,0 UV-I 0 W/m 10,3 km/h (2 Bft)
13.02.2014 23:50 3,6 C 1,7 C 92 % 1001,0 hPa 0,0 l/m 0 min 0 min 0,0 UV-I 0 W/m 7,7 km/h (2 Bft)
13.02.2014 23:52 3,6 C 1,7 C 92 % 1001,0 hPa 0,0 l/m 0 min 0 min 0,0 UV-I 0 W/m 10,3 km/h (2 Bft)
13.02.2014 23:54 3,6 C 1,7 C 92 % 1001,1 hPa 0,0 l/m 0 min 0 min 0,0 UV-I 0 W/m 2,6 km/h (1 Bft)
13.02.2014 23:56 3,6 C 1,7 C 92 % 1001,2 hPa 0,0 l/m 0 min 0 min 0,0 UV-I 0 W/m 10,3 km/h (2 Bft)
13.02.2014 23:58 3,5 C 1,7 C 92 % 1001,1 hPa 0,0 l/m 0 min 0 min 0,0 UV-I 0 W/m 15,4 km/h (3 Bft)
_ Min-Zeit 22:38 22:06 11:56 14:18 - - - - - 02:04
Minimum _ 2,7 C 1,1 C 77 % 990,5 hPa - - - - - 0,0 km/h (0 Bft)
_ Max-Zeit 11:46 11:16 16:52 23:56 12:02 00:00 01:44 00:00 11:18 06:34
Maximum _ 7,4 C 6,7 C 97 % 1001,2 hPa 0,2 l/m 0 min 2 min 0,0 UV-I 127 W/m 41,2 km/h
S (6 Bft)
Durchschnitt _ 5,5 C 4,0 C 89 % 995,2 hPa #6,6 l/m #0 min. #5:28 h 0,0 UV-I 52 W/m 10,6 km/h (2 Bft)
© 2014 W. Hausmann